GFSMW_prec_cloud_003.txt.gz
Cloud_Cover
100 100 100 100 100 100 100 100 58 61 100 100 100 98 78 68 5 5 27 100 86 15 98 99 44 5 5 5 5 5 5 5 5 5 19 89 18 0 5 99 100 100 100
100 100 94 100 100 26 86 93 88 5 5 6 11 30 5 19 98 100 39 5 11 30 100 100 79 23 97 42 5 5 5 5 5 5 4 7 100 97 1 6 94 100 100
70 100 100 88 82 84 94 60 5 5 5 5 26 20 5 56 100 92 6 82 88 91 96 100 100 100 63 81 5 5 5 5 5 5 51 46 55 100 98 4 4 100 100
100 100 100 68 26 57 86 98 58 5 5 5 5 5 5 5 6 87 72 100 100 100 33 100 100 100 100 72 42 11 6 87 28 5 5 5 95 100 100 97 9 12 100
100 100 100 100 78 52 74 27 45 100 100 98 19 6 5 6 88 95 79 92 98 100 100 100 100 100 100 89 96 60 24 100 69 5 5 5 50 100 100 100 100 68 25
55 100 100 85 100 100 100 100 79 30 11 52 79 93 100 100 98 99 85 64 41 55 100 100 100 100 100 93 100 100 100 84 74 72 97 9 5 59 100 100 100 100 100
12 73 32 99 100 100 100 67 46 88 66 5 5 5 72 97 100 100 100 100 100 100 100 100 100 100 100 100 100 100 100 100 99 100 100 98 42 12 97 100 100 100 100
9 51 92 44 96 27 6 5 97 64 7 15 5 5 5 5 64 100 100 100 100 100 100 100 100 100 100 100 100 100 100 100 100 100 87 29 24 90 42 86 100 100 100
44 94 100 98 77 14 5 96 99 32 5 5 6 12 48 85 99 80 100 100 100 100 100 100 100 100 100 100 100 100 100 100 100 100 100 99 68 90 100 89 86 100 100
34 50 63 31 5 5 29 99 89 5 4 5 35 100 100 100 100 94 100 100 100 100 100 100 100 100 100 100 100 100 100 100 100 100 100 100 100 100 100 100 100 75 89
86 71 62 76 51 65 100 74 97 32 5 96 92 100 100 100 100 100 100 100 100 100 100 100 100 100 100 100 100 100 100 100 97 99 100 77 83 99 100 100 76 93 61
97 93 38 74 92 44 61 47 66 100 100 91 98 100 100 100 100 100 100 100 100 100 100 100 100 100 100 100 100 100 99 86 100 100 100 100 100 78 44 100 99 86 14
97 100 100 99 52 5 68 100 100 100 95 100 91 88 85 98 96 100 92 100 100 100 100 100 100 100 100 100 100 100 100 100 100 99 7 5 5 5 5 0 1 9 23
79 100 100 93 97 100 100 99 100 100 100 96 52 99 100 89 67 71 12 83 98 98 100 100 100 100 100 100 100 100 100 80 11 8 34 16 4 5 5 3 3 5 5
97 100 100 100 100 90 100 100 100 97 100 77 100 29 6 9 5 5 21 100 98 92 100 99 81 86 100 100 100 43 6 35 6 6 13 27 19 25 72 18 5 5 5
100 95 6 67 65 92 92 66 82 5 44 100 100 100 100 100 100 100 100 100 100 88 95 100 100 100 100 24 4 5 5 5 5 5 5 5 5 0 3 2 5 5 37
6 15 85 66 10 87 98 14 5 5 90 100 100 100 100 100 100 100 100 100 100 100 100 100 98 38 0 0 4 5 5 5 5 5 5 5 5 5 5 5 13 64 83
33 36 34 93 85 34 11 5 7 76 100 100 95 79 100 100 100 100 100 100 100 100 100 66 5 0 2 5 2 4 5 5 5 5 5 5 5 71 78 87 20 52 83
45 7 5 32 53 26 5 5 66 78 94 48 47 80 81 100 100 100 100 100 74 83 48 5 0 3 5 5 5 5 68 28 7 11 28 55 92 100 100 100 100 83 95
68 31 6 5 9 100 32 98 98 86 66 100 100 100 100 100 91 100 100 32 37 41 5 2 5 5 5 5 5 36 100 97 87 99 100 100 100 100 100 98 100 100 100
100 100 54 38 26 43 93 100 58 99 100 100 100 100 100 100 100 99 53 49 55 5 5 5 5 5 5 5 5 98 100 100 100 100 96 87 96 100 100 100 100 89 98
11 84 25 11 100 63 100 70 100 100 100 100 100 100 100 100 100 96 68 33 5 5 5 5 5 5 5 48 80 100 89 97 100 100 100 100 100 99 95 100 100 100 100
72 5 23 97 97 100 100 100 100 100 100 100 100 100 100 100 100 43 5 5 5 5 34 5 5 5 31 100 100 84 86 99 99 98 100 100 100 100 99 90 98 94 100
68 98 68 58 80 96 96 100 100 100 100 100 100 100 100 97 40 26 5 5 5 43 38 5 89 90 97 91 100 100 100 100 97 100 100 82 94 98 100 100 100 94 100
100 100 44 65 62 88 84 85 91 72 100 100 100 100 90 9 6 5 5 5 5 20 99 96 100 100 100 100 100 100 100 100 99 100 86 72 72 95 95 100 100 92 100
100 100 91 66 91 80 53 91 100 100 100 100 79 77 5 5 4 5 5 5 23 98 24 100 100 96 98 100 100 100 100 100 100 100 91 96 86 92 98 100 100 100 100

GFSMW_prec_cloud_006.txt.gz
Cloud_Cover
100 100 100 100 86 13 6 8 5 5 5 5 5 5 5 5 5 5 5 5 5 6 5 5 29 69 64 10 22 5 5 5 5 5 5 5 5 4 5 5 5 36 36
38 0 20 71 9 16 18 5 2 5 5 62 11 13 60 6 8 7 5 20 12 44 70 28 5 5 39 69 55 8 40 36 25 5 5 5 16 5 32 67 45 5 6
100 3 5 5 5 14 48 28 5 5 5 88 64 64 19 29 18 41 5 5 35 44 31 66 56 57 90 99 32 63 100 99 82 26 5 5 5 13 73 11 20 5 5
100 100 69 28 5 5 5 5 5 59 20 7 35 5 5 5 5 5 5 2 4 4 5 5 7 39 78 82 94 68 88 100 60 19 67 5 30 5 46 74 70 21 80
100 100 82 59 5 43 5 6 6 52 100 100 100 100 100 100 100 41 5 5 5 5 5 5 5 5 5 24 86 100 83 93 65 9 69 49 61 5 5 58 79 100 88
13 57 13 23 19 7 80 35 55 100 98 100 98 100 84 61 9 14 5 19 32 36 100 98 98 100 95 67 48 96 100 100 80 26 63 42 5 5 5 1 2 35 100
100 52 5 5 36 76 44 97 100 100 66 85 100 100 19 5 5 5 5 7 60 99 100 48 98 100 97 100 100 97 25 88 100 100 5 43 87 58 21 58 5 0 67
74 5 5 5 5 9 48 60 7 46 7 42 83 24 5 5 5 5 12 17 21 94 95 100 100 100 100 87 100 99 100 100 99 71 68 81 82 100 96 40 5 4 0
5 47 48 5 5 5 59 96 54 5 5 6 5 5 5 6 56 51 40 60 100 100 100 100 100 100 100 100 100 100 100 100 100 100 100 100 100 100 100 99 20 5 5
10 10 13 5 8 21 20 5 56 46 7 5 4 6 6 5 5 5 5 12 93 100 100 100 100 100 100 100 100 100 100 100 100 100 100 100 100 100 100 100 85 7 3
92 16 21 7 41 34 56 58 48 31 52 87 93 28 5 5 5 5 5 62 99 100 100 100 100 100 100 100 100 100 100 100 100 100 100 100 100 100 100 100 100 100 34
5 5 5 8 61 42 5 37 98 89 36 17 5 5 5 5 21 5 50 100 100 100 51 84 100 100 100 100 100 100 100 100 100 100 96 82 98 96 100 90 100 100 100
9 54 100 99 38 95 99 58 5 8 5 0 5 4 5 78 84 23 99 100 100 100 100 100 100 100 99 100 100 100 100 100 100 100 100 99 97 96 100 75 5 5 16
96 100 41 84 100 30 5 7 9 4 5 4 5 5 15 95 95 90 52 100 100 100 100 100 100 100 100 100 100 100 100 100 100 85 25 8 5 5 5 5 5 5 5
66 44 58 42 53 5 5 2 3 5 1 0 4 6 65 100 95 97 82 100 100 100 100 100 100 100 100 100 100 100 40 10 5 5 4 2 3 4 5 5 5 5 5
100 100 91 6 5 37 15 4 5 5 0 88 100 100 100 100 100 100 100 100 100 100 100 100 100 100 100 99 11 5 5 5 5 5 2 4 0 4 3 0 0 5 5
96 5 5 5 5 5 5 5 5 5 5 90 100 100 97 100 100 100 100 100 100 100 100 100 100 100 90 28 5 4 3 5 5 5 5 5 5 5 5 5 5 5 5
6 13 47 47 9 40 5 5 5 5 5 38 57 59 94 100 100 100 100 100 100 100 100 100 89 65 28 3 4 5 5 5 5 5 7 32 25 16 42 93 85 63 22
91 93 100 100 100 90 39 79 22 80 88 58 43 30 53 96 90 99 94 88 88 100 61 49 63 11 5 5 5 5 5 5 9 16 35 78 99 100 99 100 100 100 100
100 100 88 98 96 96 98 100 100 100 100 98 78 86 100 99 97 100 100 100 98 40 35 34 5 5 5 5 5 33 98 92 90 82 85 100 96 100 100 91 100 100 100
100 100 99 99 96 87 100 100 100 100 100 98 100 100 100 100 100 100 100 97 63 33 5 16 5 5 5 5 5 90 100 91 98 100 92 94 100 100 100 100 100 87 47
80 64 27 26 31 70 100 99 100 100 90 100 100 100 100 100 100 100 100 99 42 6 5 24 5 5 5 5 10 98 76 95 100 100 94 91 92 97 99 100 94 81 100
97 98 100 93 100 100 96 11 77 5 5 79 99 100 100 100 100 100 97 23 16 28 25 28 35 5 5 7 79 92 80 88 100 87 99 91 34 48 86 80 72 82 100
100 100 100 100 92 99 100 100 100 90 84 74 95 100 100 100 99 42 5 5 5 22 6 10 72 88 28 38 100 87 94 100 100 98 95 72 38 98 79 78 90 100 100
100 96 100 100 100 100 100 100 100 100 100 96 100 100 46 5 5 5 5 5 5 28 68 20 99 100 82 100 100 100 100 100 100 98 96 91 64 60 90 98 98 100 94
98 90 96 61 100 97 100 100 100 100 100 100 100 63 6 5 12 54 5 5 5 5 5 54 98 88 96 100 100 100 100 100 100 100 100 69 84 100 100 100 92 78 97

GFSMW_prec_cloud_009.txt.gz
Cloud_Cover
19 16 1 1 1 0 0 0 0 0 5 5 5 5 5 3 5 6 25 48 28 5 5 5 5 5 5 5 5 5 5 5 2 0 0 0 0 2 0 5 5 5 12
2 4 2 0 1 5 5 1 0 5 5 5 4 0 0 0 1 0 0 1 3 4 4 4 4 3 4 5 5 5 54 36 5 3 0 3 3 5 11 5 46 100 83
0 4 2 5 0 1 0 0 0 0 0 1 5 9 2 3 3 36 51 62 34 4 5 5 5 7 43 12 5 5 27 96 58 65 70 60 13 5 11 66 65 82 17
3 4 5 5 5 5 5 11 100 100 100 100 100 100 100 100 100 100 100 100 100 100 99 43 25 67 98 95 95 93 58 7 46 80 100 100 100 93 34 100 74 5 5
82 98 6 5 27 5 30 55 44 62 58 6 85 89 98 100 100 100 100 100 100 100 95 19 59 100 100 100 100 100 100 100 100 100 89 88 100 96 82 12 99 81 5
95 6 62 90 34 11 6 5 92 67 16 5 5 11 60 34 5 7 3 2 1 0 0 4 36 87 37 16 100 100 97 59 100 88 100 95 81 99 91 83 6 59 6
18 60 77 31 5 5 5 5 5 5 5 5 6 74 5 5 0 1 1 0 0 0 0 0 0 93 74 97 100 95 100 99 100 100 100 100 100 100 90 8 5 0 0
29 56 18 5 5 5 3 5 5 14 5 5 2 1 5 2 3 0 0 0 0 0 0 1 15 94 98 100 100 100 100 100 100 100 100 100 100 96 92 60 5 0 0
5 5 5 5 5 4 0 5 4 5 3 0 0 0 3 5 0 0 0 0 0 0 5 5 13 99 100 100 100 100 100 100 100 100 100 100 100 81 17 5 5 5 2
5 5 5 5 5 4 4 5 5 6 4 5 4 3 3 0 0 0 0 2 4 8 40 73 97 97 100 100 100 100 100 100 100 100 100 100 100 99 66 54 61 54 9
5 5 41 68 11 42 80 5 5 14 5 5 5 2 0 0 0 2 5 5 36 92 100 90 98 100 100 100 100 100 100 100 100 100 100 100 100 70 62 88 75 59 72
6 7 77 74 100 79 44 91 80 94 13 5 5 14 1 5 5 5 60 90 100 100 100 84 76 98 100 100 100 100 100 100 100 100 100 100 100 100 99 66 33 7 12
5 5 46 58 90 65 99 70 50 34 10 73 39 1 0 0 5 50 100 97 100 100 100 100 91 99 100 88 62 31 46 81 98 100 100 100 100 100 100 99 92 42 5
66 99 100 95 100 97 100 98 6 55 32 5 47 37 5 5 65 100 100 99 100 100 100 100 100 100 100 100 100 100 88 97 100 100 100 100 57 5 5 3 4 4 5
20 53 92 18 35 48 20 86 48 11 99 37 45 24 63 83 100 77 100 100 100 100 100 100 100 100 100 99 81 100 100 100 100 100 100 15 1 4 5 5 5 27 54
5 46 100 52 6 58 91 46 36 6 5 23 18 93 100 100 100 100 100 100 100 100 100 100 100 100 100 100 100 79 100 100 88 6 0 5 5 4 3 5 5 5 11
9 91 92 99 100 100 99 100 90 5 5 7 16 49 87 81 100 100 100 100 100 100 100 100 100 100 100 100 100 94 62 5 5 5 5 5 5 5 5 5 6 5 5
99 100 100 94 100 97 100 95 98 100 85 77 99 100 100 100 100 100 100 100 100 100 100 100 100 100 100 99 50 10 5 5 5 5 5 16 29 66 98 100 100 98 92
53 67 100 100 99 100 100 39 34 72 99 80 96 100 100 100 100 100 100 100 100 100 91 100 100 100 100 37 6 5 5 5 5 8 22 90 95 10 94 100 100 100 100
87 97 100 99 100 100 100 100 74 98 100 87 84 85 100 100 100 100 100 100 100 100 100 98 100 70 63 5 5 5 85 98 95 100 96 86 92 96 92 100 100 100 100
100 99 93 98 100 100 97 76 32 50 16 5 41 37 85 98 55 100 100 99 100 96 58 35 34 6 5 5 5 66 100 98 100 81 74 90 92 99 100 100 100 100 100
100 100 78 73 94 97 100 40 5 5 5 46 72 92 91 95 99 92 74 54 12 5 5 8 5 5 5 5 5 82 86 99 100 99 100 86 94 91 84 89 93 100 100
100 97 100 95 100 85 100 100 88 80 66 84 75 96 90 67 13 5 5 5 5 5 28 6 5 5 15 5 5 5 89 100 95 100 100 95 85 100 96 84 94 91 90
100 100 11 21 68 100 100 97 88 56 5 5 53 86 76 5 5 5 5 5 5 22 6 8 12 94 50 5 12 98 100 100 100 100 100 95 89 93 93 100 100 99 100
100 100 100 100 11 5 5 5 13 11 8 41 62 8 5 5 5 5 5 5 5 58 66 13 98 100 84 74 100 100 100 100 100 100 100 100 99 93 100 100 94 98 96
33 34 52 6 5 5 5 5 5 5 33 6 5 5 5 19 73 27 5 18 5 5 5 5 96 100 99 100 100 100 100 100 100 100 100 100 98 100 100 100 98 60 100

GFSMW_prec_cloud_015.txt.gz
Cloud_Cover
0 0 0 0 0 0 0 0 5 5 5 5 5 5 5 1 0 0 0 0 5 5 0 4 5 5 4 5 0 2 5 4 5 5 0 0 0 0 0 0 0 0 0
0 0 0 0 0 5 0 0 5 5 5 5 5 4 5 5 5 16 58 8 5 5 5 4 4 3 2 0 0 0 0 5 5 5 5 2 0 0 0 0 0 0 0
0 0 0 0 0 2 0 0 0 1 3 0 5 4 13 43 36 9 5 5 5 5 0 0 0 0 0 0 0 0 0 3 5 8 35 5 5 4 1 3 3 1 0
0 0 0 0 0 0 0 5 5 5 5 11 9 5 21 32 5 5 5 5 5 5 5 4 0 0 0 0 0 0 1 5 5 5 7 5 5 5 5 2 72 98 25
5 5 5 0 1 5 57 91 100 97 10 5 5 6 72 5 12 18 5 5 5 5 5 5 0 0 0 0 0 0 0 5 57 10 91 100 83 46 5 5 4 89 97
5 5 31 59 60 97 97 21 73 18 77 87 86 82 27 74 70 84 76 5 17 5 4 5 5 3 0 1 18 65 84 100 75 80 87 100 100 82 48 55 52 78 11
5 6 91 100 100 68 35 87 97 100 86 87 85 100 100 41 5 41 24 7 7 21 41 8 5 2 22 60 87 85 100 100 100 100 100 100 100 100 100 100 100 95 67
7 57 6 24 8 79 100 41 27 62 72 100 100 100 99 87 88 12 95 97 94 61 58 18 5 23 14 32 82 100 100 100 100 100 100 100 100 100 100 100 100 87 91
5 5 5 5 58 80 91 100 100 100 72 5 5 87 89 39 64 91 100 100 95 22 5 5 5 93 100 100 100 99 95 96 100 100 100 100 100 100 100 100 100 100 71
5 23 39 66 93 99 100 78 55 5 5 5 24 90 95 88 100 100 68 38 72 97 90 68 100 98 99 100 100 100 97 100 100 100 100 100 100 100 100 100 100 100 100
76 100 49 51 66 48 82 16 5 5 5 95 100 100 95 88 96 46 65 32 24 65 63 49 46 88 100 100 100 100 100 100 100 100 100 100 100 100 97 79 98 98 97
99 25 17 56 5 5 5 5 5 6 94 100 100 100 100 99 100 100 91 71 96 35 94 90 94 100 100 100 100 100 100 100 100 100 100 100 100 100 100 99 96 94 81
7 55 66 5 5 5 44 93 93 84 100 100 100 100 100 84 66 96 99 93 83 100 100 87 88 100 100 100 100 100 100 100 100 100 100 100 100 100 100 100 100 100 98
40 6 29 49 95 100 100 100 100 100 100 100 100 100 96 27 89 100 100 97 99 100 100 87 100 99 100 100 100 100 100 96 100 100 100 100 100 100 100 100 100 45 27
37 31 31 74 100 99 92 96 100 100 100 88 64 98 97 100 100 98 98 100 100 100 100 88 100 100 100 100 96 99 100 100 100 100 100 81 86 76 31 7 48 100 100
60 93 100 100 87 79 100 100 100 100 100 100 100 100 100 98 22 5 5 55 61 100 100 100 100 100 100 99 99 97 85 100 100 100 100 100 70 42 62 66 83 92 99
99 90 60 65 100 100 100 100 96 82 100 100 100 88 38 5 63 49 88 5 5 5 5 5 5 5 14 56 80 97 83 81 92 100 100 100 100 93 96 98 100 100 100
99 100 87 98 100 100 64 99 18 21 100 71 8 47 41 22 5 5 6 5 5 5 8 46 27 5 5 5 5 15 56 96 100 79 99 100 95 95 100 100 100 100 100
93 100 100 100 100 83 54 59 58 23 8 17 40 65 17 5 23 5 5 5 5 5 5 18 5 5 5 2 5 43 98 99 96 99 99 98 100 99 99 100 100 100 100
100 100 100 100 90 82 32 7 20 69 100 100 100 100 80 63 5 5 5 5 5 5 5 5 5 5 5 5 7 85 100 100 100 100 100 99 91 85 100 100 100 100 100
100 97 98 98 100 100 100 31 12 29 91 97 98 97 77 56 5 5 5 5 5 5 5 5 5 8 5 6 51 92 100 100 100 100 100 99 100 98 94 97 99 100 100
75 100 100 100 100 100 57 62 10 5 5 5 5 61 32 5 5 5 5 5 5 8 52 81 90 100 97 99 57 73 98 96 100 100 100 100 92 93 79 88 100 99 98
100 100 100 100 100 100 87 5 5 5 5 5 5 5 5 5 5 5 6 50 69 94 95 100 100 100 100 100 100 89 100 99 98 100 100 100 94 95 79 96 100 99 100
100 100 100 100 100 64 13 81 58 89 60 65 39 5 5 5 5 5 66 88 99 99 100 100 100 100 100 100 100 100 100 100 100 100 100 100 100 100 99 100 97 100 100
92 100 100 77 8 78 71 100 100 100 100 57 5 5 54 5 19 5 5 88 98 97 100 100 100 100 100 100 100 100 100 100 100 100 100 100 100 100 100 100 100 100 100
86 60 14 14 83 98 100 100 100 100 76 71 5 6 8 64 67 9 71 20 10 6 5 16 64 100 100 100 100 100 100 100 100 100 100 100 100 100 100 100 100 100 100

GFSMW_prec_cloud_018.txt.gz
Cloud_Cover
0 0 0 0 0 0 0 4 5 5 5 5 5 5 5 5 3 5 5 5 5 5 5 4 5 30 52 9 5 5 5 4 0 0 0 0 0 0 0 0 0 0 0
0 0 0 0 0 0 4 5 5 9 26 5 5 5 5 5 5 7 14 5 5 6 8 5 10 5 6 72 78 5 5 5 0 2 2 4 5 17 1 1 0 0 0
0 0 0 0 0 0 5 41 64 32 5 5 5 8 81 92 89 88 83 28 21 62 80 5 5 18 26 5 6 7 60 19 53 46 61 5 63 95 98 19 1 0 0
5 2 0 0 4 5 5 5 5 10 33 5 5 56 95 79 21 6 5 11 75 24 5 17 51 6 5 8 9 15 37 5 79 100 88 97 24 63 100 100 58 6 4
1 1 5 5 5 5 5 5 5 32 70 89 94 29 5 5 6 75 100 100 5 5 6 13 5 5 5 5 5 5 6 32 87 45 100 86 98 100 100 100 100 100 75
4 5 5 6 30 35 66 69 29 76 78 98 16 29 36 79 38 58 7 5 5 28 100 100 89 55 5 12 67 100 75 94 92 88 100 100 91 100 100 99 99 100 100
5 5 6 19 5 13 20 62 71 76 96 40 48 60 89 57 15 6 5 5 72 100 72 62 65 9 78 98 82 77 99 100 100 100 100 100 100 100 100 100 100 100 100
5 5 5 5 24 36 12 12 90 56 8 39 60 18 5 42 69 23 97 100 100 100 15 15 51 97 100 100 69 82 67 96 96 100 100 100 100 100 100 100 100 100 100
1 5 5 5 5 22 22 5 6 29 6 9 5 9 41 96 100 100 100 100 93 75 98 90 100 94 91 100 100 100 100 100 100 100 90 99 100 100 100 100 100 100 100
4 5 5 7 13 5 5 6 5 11 40 16 5 9 6 25 97 100 100 100 58 90 97 100 100 100 100 99 97 95 99 100 83 99 100 100 100 100 100 100 100 100 100
6 39 92 95 43 47 44 28 15 36 32 6 8 46 100 100 100 100 85 94 91 82 91 91 100 100 95 100 100 100 100 100 100 100 100 100 100 100 100 100 100 100 100
100 99 99 85 28 44 13 5 5 5 24 79 100 100 100 100 100 64 97 24 74 80 71 100 100 88 100 100 100 100 100 100 100 100 100 100 100 100 100 100 100 100 96
96 44 11 32 38 40 28 5 6 65 100 100 100 99 100 99 78 80 90 100 99 97 100 100 100 100 68 100 100 100 99 100 100 100 100 100 100 100 100 100 100 84 12
95 84 49 42 84 32 84 92 98 100 100 83 75 98 100 96 79 100 100 86 80 94 99 100 99 98 90 92 100 100 100 100 100 100 100 100 100 100 100 100 100 100 100
47 8 46 70 80 99 100 100 100 100 95 100 100 98 9 14 25 72 77 90 51 20 11 5 5 5 18 20 30 75 78 83 87 99 100 100 100 100 100 100 100 90 56
36 98 47 99 100 100 100 100 100 100 100 93 18 30 52 91 95 98 85 15 5 5 5 5 5 5 42 26 6 5 5 5 5 23 67 34 20 27 62 52 59 91 100
100 49 99 100 100 100 100 100 100 33 5 13 82 84 85 61 18 5 70 47 5 5 5 5 5 5 5 5 5 5 2 5 24 91 86 67 38 53 100 100 100 90 95
100 100 100 100 98 100 100 74 57 23 11 79 100 100 81 64 78 96 97 5 5 5 5 5 36 64 86 5 5 5 13 96 100 100 100 100 97 100 100 100 100 100 100
100 100 97 100 89 82 74 10 5 48 96 100 90 100 100 89 92 25 5 5 5 5 5 58 99 100 99 95 6 44 99 100 100 99 100 100 100 100 100 100 100 100 100
100 97 76 58 78 5 5 5 11 21 7 5 34 26 5 5 5 5 5 5 6 37 95 94 88 98 100 100 99 98 100 100 100 100 100 100 99 99 100 100 100 100 100
5 5 5 5 5 5 10 30 5 5 83 5 10 15 19 10 5 5 5 36 97 100 100 100 100 99 99 100 98 99 100 100 100 100 100 100 100 99 100 98 100 100 96
5 5 5 5 5 5 30 7 5 31 98 100 100 54 94 5 5 5 32 100 100 100 100 100 100 100 92 100 100 93 98 100 100 100 100 100 98 100 100 95 96 100 100
5 5 5 5 5 5 70 86 72 97 100 100 100 100 100 31 55 100 95 100 100 100 100 100 100 100 100 100 98 97 100 100 100 100 100 100 100 100 100 100 100 100 100
5 5 5 5 5 5 85 100 100 99 100 100 100 100 100 98 77 99 100 99 99 100 100 100 100 100 100 100 100 100 100 100 100 100 100 100 100 100 100 100 100 100 100
5 5 5 5 5 5 15 100 78 87 84 100 100 100 100 93 90 95 97 99 100 94 99 100 100 100 100 100 100 100 100 100 100 100 100 100 100 100 100 100 100 100 100
5 5 5 5 5 5 54 100 100 100 100 100 100 100 85 100 100 100 97 100 71 36 5 45 83 100 100 100 100 100 100 100 100 100 100 100 100 100 100 100 100 100 100

GFSMW_prec_cloud_021.txt.gz
Cloud_Cover
1 0 0 0 0 0 0 0 5 5 30 75 77 86 89 92 87 27 10 10 5 5 5 5 5 5 5 5 5 5 5 10 5 5 5 16 5 5 5 5 4 1 2
0 0 0 0 0 0 0 4 5 21 76 100 100 100 100 87 91 93 91 71 9 46 48 30 81 88 58 18 16 12 22 21 85 40 22 5 5 29 12 13 5 3 4
0 0 0 0 2 5 4 5 5 64 100 100 83 94 95 83 81 100 30 30 89 99 28 8 5 32 51 14 5 5 78 100 100 22 5 5 5 12 54 99 100 90 54
0 0 0 5 4 5 5 5 47 17 9 5 68 98 93 89 97 24 58 31 97 39 5 5 5 48 5 5 5 11 68 35 28 5 5 84 72 70 26 5 86 100 100
0 0 0 1 5 4 5 5 5 5 44 85 95 100 93 100 30 46 62 43 19 77 17 5 5 5 5 5 9 94 80 54 31 35 42 6 4 63 92 37 100 100 100
0 0 4 5 5 5 5 5 5 5 8 28 5 21 56 78 100 75 36 24 62 43 5 5 18 69 92 99 78 96 97 76 50 52 68 95 100 100 100 100 100 100 100
0 4 5 5 25 13 13 10 59 96 89 84 100 100 98 60 70 70 95 98 37 10 88 100 73 19 89 100 100 100 91 32 22 96 85 86 98 100 100 100 100 100 97
0 4 5 5 11 67 98 100 100 35 15 62 78 68 95 99 91 81 71 41 88 72 11 7 65 100 100 100 100 100 100 73 87 63 94 100 100 100 100 99 98 100 100
5 5 5 59 100 97 97 77 83 100 100 100 90 100 100 92 100 99 93 80 100 100 100 100 100 100 100 100 100 89 100 81 61 89 99 99 100 100 98 77 100 100 100
4 8 88 86 12 35 98 89 68 100 100 100 100 100 100 90 56 92 100 100 94 99 97 100 94 100 100 100 100 100 100 100 100 100 100 100 100 100 83 94 100 74 100
18 98 53 86 100 100 100 100 100 100 100 100 96 61 61 100 100 84 22 59 78 100 100 100 100 89 100 96 83 84 99 97 100 98 100 100 100 100 100 100 100 100 94
72 83 100 100 100 100 100 88 100 98 97 93 99 100 100 71 8 53 32 100 100 46 76 62 100 100 100 100 96 96 81 100 100 100 100 99 100 85 100 100 100 100 100
100 100 100 100 100 96 41 73 100 100 100 100 91 27 70 82 33 93 18 93 51 27 42 78 92 100 100 84 32 90 96 100 100 100 100 100 100 100 91 98 100 100 100
100 100 100 72 96 83 100 100 72 25 20 5 5 5 12 99 86 61 68 92 87 100 90 86 53 9 5 5 5 5 5 5 76 92 99 100 96 42 74 100 87 100 100
97 29 48 100 100 100 100 55 6 6 27 49 5 3 90 100 98 99 100 100 96 84 14 8 5 5 5 49 5 1 5 5 5 5 5 41 87 14 12 9 17 85 100
40 100 100 100 100 100 91 19 6 8 5 5 5 15 95 87 100 100 100 99 30 5 5 5 5 5 28 64 5 3 2 5 5 6 31 78 99 92 100 70 36 21 99
84 89 30 79 100 100 70 5 5 5 5 5 40 56 86 100 100 100 96 54 5 5 5 5 36 95 100 81 5 5 5 5 43 100 100 100 100 100 100 100 100 85 95
14 47 84 96 100 27 24 11 41 5 28 93 92 31 99 98 100 100 100 96 41 66 94 100 100 100 100 70 8 5 29 97 100 100 100 100 87 100 80 63 100 100 100
95 100 87 10 3 35 98 100 100 100 100 100 97 100 36 100 100 100 100 100 100 100 100 96 69 81 100 100 67 53 98 100 100 100 100 100 100 100 99 100 100 100 100
100 100 100 33 100 100 97 99 100 100 100 100 77 58 100 100 100 100 100 100 100 100 23 11 61 100 98 100 100 39 100 98 100 100 100 100 100 100 99 100 100 100 100
100 100 100 100 87 5 5 18 100 100 100 100 98 95 96 100 100 100 100 100 100 76 53 26 66 98 99 100 98 100 100 100 100 100 99 100 100 100 100 100 100 100 100
95 84 69 90 5 5 8 35 100 90 78 18 51 98 96 100 100 100 100 100 53 99 76 97 94 100 95 99 100 92 74 98 100 100 100 100 100 97 100 100 100 100 100
5 6 14 21 93 20 37 69 85 10 96 100 98 97 100 88 100 100 100 94 100 99 91 100 100 99 100 100 100 86 92 100 100 100 100 100 100 100 100 100 100 100 100
5 5 5 24 45 98 91 87 88 92 100 99 100 100 100 100 100 100 99 100 97 100 100 100 100 100 100 100 100 99 100 100 100 100 100 100 100 100 100 100 100 100 100
5 5 48 100 100 100 100 100 64 100 100 100 100 100 100 100 100 100 100 91 100 82 58 78 98 100 100 100 94 100 100 100 100 100 100 100 100 100 100 100 100 100 100
19 80 75 84 100 100 72 75 95 99 87 80 100 100 100 100 100 98 95 98 63 5 5 5 38 72 94 100 100 100 100 100 100 100 100 100 100 100 100 100 100 100 100

GFSMW_prec_cloud_027.txt.gz
Cloud_Cover
0 0 0 5 5 3 4 4 0 0 0 0 5 5 5 5 5 5 5 5 5 16 100 5 5 1 0 0 0 0 2 5 5 5 5 5 5 5 5 5 5 34 26
0 0 0 0 0 7 0 0 5 26 5 5 5 5 5 2 4 4 66 92 55 9 5 5 3 4 5 5 33 40 10 15 5 5 5 2 5 6 32 44 25 8 24
0 0 0 0 0 0 2 5 40 62 41 5 5 5 1 3 5 5 64 77 22 6 3 2 3 4 5 4 2 1 2 5 5 5 43 74 50 86 100 100 97 78 66
0 0 0 0 5 5 5 2 5 5 5 5 2 1 5 5 44 45 71 82 25 5 5 2 4 5 0 0 2 4 5 16 82 98 98 95 52 6 66 100 100 98 100
0 0 0 0 0 0 0 5 5 5 1 5 34 100 100 100 100 100 96 41 6 10 45 89 100 100 100 97 94 60 100 100 100 100 96 5 5 8 26 20 25 5 5
0 0 0 0 0 0 1 1 0 0 0 3 5 29 91 89 100 100 100 100 100 100 100 81 38 4 4 5 54 93 100 99 100 83 5 5 95 97 100 94 6 5 4
0 0 0 3 3 3 4 5 56 100 96 100 80 23 5 31 94 72 98 72 34 14 9 7 5 4 5 5 5 80 90 43 97 90 13 26 44 55 100 96 100 65 5
1 0 0 3 5 26 22 5 12 37 96 78 100 99 93 100 98 100 44 39 11 5 5 4 2 4 2 5 5 27 100 100 99 61 6 61 74 96 100 100 81 14 5
25 27 5 0 5 20 92 84 80 84 14 98 100 98 94 61 100 100 100 39 5 0 4 5 5 9 5 5 7 99 96 77 54 69 71 37 98 96 100 100 100 100 98
5 5 7 5 77 78 6 5 5 5 20 71 68 96 100 94 52 20 5 3 5 5 1 5 5 40 51 38 10 5 5 5 96 100 100 100 100 100 100 100 100 100 100
6 87 51 56 47 97 73 39 28 50 99 100 92 54 14 5 5 5 5 4 1 0 0 5 5 5 5 8 5 64 12 86 42 19 5 3 4 28 49 100 100 100 100
6 95 100 24 5 5 12 86 46 87 40 42 86 99 12 5 1 0 0 0 0 5 5 5 9 97 86 59 46 5 5 5 5 59 36 6 0 4 5 48 100 100 100
5 5 12 13 19 13 63 76 8 5 22 21 13 33 0 0 0 0 0 0 0 1 5 5 5 5 5 5 5 5 16 55 100 100 93 14 0 3 5 5 5 3 24
7 5 5 5 6 12 65 5 13 86 67 13 11 5 21 22 4 3 34 43 3 0 3 0 0 5 3 5 5 41 46 10 5 4 3 0 0 0 2 5 17 39 20
5 5 5 5 22 34 6 28 72 6 5 8 11 79 69 13 59 51 48 62 78 5 89 0 0 5 5 38 69 10 5 0 4 5 5 1 5 69 49 100 40 23 94
5 5 17 33 5 5 5 5 5 5 99 100 73 28 45 70 82 100 100 100 100 27 73 13 17 66 62 30 5 5 5 5 5 5 0 1 5 44 33 90 100 100 100
17 7 5 5 5 32 94 55 60 100 94 92 100 66 5 7 6 90 100 100 100 73 100 5 52 99 22 100 5 5 5 5 5 12 4 0 4 5 5 5 69 98 100
5 5 5 5 6 74 8 14 6 10 89 100 16 2 22 99 92 100 86 100 100 100 100 70 100 37 94 5 4 5 5 5 36 44 28 5 7 5 5 42 67 5 5
5 5 8 68 100 100 56 17 60 57 18 0 4 0 0 4 2 98 96 100 100 100 100 100 83 42 9 5 5 5 16 58 10 50 78 47 11 5 97 86 85 41 28
45 38 51 82 100 16 8 37 5 5 0 5 5 2 0 3 39 58 98 100 100 91 100 31 5 5 5 5 5 22 56 53 80 95 100 100 100 100 99 100 88 83 28
57 27 80 67 12 5 5 5 2 3 5 10 4 1 3 5 28 99 100 100 100 88 5 5 5 5 5 5 72 82 98 100 97 100 100 100 100 100 92 97 95 85 82
5 10 8 67 14 9 12 10 5 2 4 4 5 1 5 5 26 97 97 100 94 16 5 5 5 5 5 2 11 44 83 98 99 100 100 100 100 100 100 100 100 100 100
5 10 10 5 9 34 5 8 4 1 0 0 1 4 5 5 31 82 94 79 53 5 5 5 5 5 5 5 1 5 65 8 74 100 100 100 100 100 100 100 100 100 100
5 5 5 5 27 1 0 1 5 5 0 0 5 5 5 5 12 60 100 55 5 5 5 5 5 29 5 5 8 87 43 5 86 100 100 100 100 100 100 100 100 100 100
5 5 5 4 0 0 5 5 5 5 5 5 5 5 5 5 74 96 95 5 5 5 5 5 25 55 67 21 100 100 100 100 99 100 100 100 100 100 100 100 100 100 100
5 5 3 0 0 5 5 5 35 78 57 21 5 5 5 13 47 5 5 29 5 5 5 5 45 53 5 43 100 100 100 100 99 83 100 100 100 100 100 100 100 100 100

GFSMW_prec_cloud_030.txt.gz
Cloud_Cover
0 0 0 0 5 52 66 44 75 79 63 92 97 22 68 76 75 13 2 5 5 33 73 98 28 5 4 5 5 5 4 0 4 5 5 9 8 8 46 11 5 5 11
0 0 0 5 4 8 12 1 0 59 79 100 96 100 100 95 18 0 5 8 73 94 51 8 30 50 4 1 0 3 4 5 5 4 6 8 5 5 5 15 56 47 55
8 1 2 29 40 43 5 0 4 5 6 74 88 24 14 54 78 93 80 31 5 5 2 0 0 2 1 0 0 0 0 0 2 11 79 43 11 5 12 5 5 5 37
36 6 3 0 0 0 0 0 5 5 16 10 5 5 14 89 88 86 65 10 5 5 0 0 1 0 2 4 2 4 5 56 88 100 40 100 73 26 5 4 5 5 1
72 100 100 100 0 0 0 0 0 0 0 5 29 97 100 100 97 100 100 100 100 100 100 100 100 100 99 22 5 3 5 2 36 59 72 63 57 23 86 61 6 2 0
19 66 78 13 0 1 0 0 0 0 2 5 62 100 89 88 100 100 100 100 100 99 91 86 68 10 4 3 2 5 5 5 6 58 90 59 13 6 99 89 76 89 3
10 42 29 22 3 3 5 4 4 4 67 80 50 54 31 24 27 20 39 25 60 38 5 5 5 5 5 4 5 5 6 5 25 98 100 100 84 81 100 100 57 100 64
22 97 80 4 0 1 5 5 98 100 100 100 100 100 100 99 100 100 44 62 8 5 3 4 5 1 5 5 5 5 7 10 5 5 9 20 77 98 96 100 100 100 94
87 50 39 5 5 5 5 5 5 5 5 5 5 8 10 5 23 7 67 85 5 1 0 0 0 0 0 5 5 5 5 5 5 5 41 57 83 100 100 90 100 100 100
19 10 9 10 44 14 5 5 5 5 27 77 28 5 5 5 30 23 5 3 0 0 0 0 0 0 0 5 5 5 2 2 4 37 59 87 19 5 2 2 81 100 100
96 67 98 96 90 5 7 5 63 53 39 80 5 5 5 5 5 5 5 0 0 0 0 0 2 0 5 5 4 5 1 5 5 3 6 15 6 11 25 2 0 4 51
77 16 97 76 5 5 5 5 5 20 5 5 5 1 5 4 2 3 0 0 1 40 50 28 27 73 60 52 2 0 5 2 4 5 42 97 100 73 5 5 0 0 1
60 65 65 90 77 58 5 38 63 58 5 5 4 5 5 32 17 5 5 5 22 100 99 100 100 100 100 100 79 1 4 88 90 13 41 10 5 1 0 2 3 1 2
96 89 77 93 82 34 72 85 79 5 5 5 27 99 100 61 98 100 92 46 67 84 100 100 100 100 98 100 5 5 100 71 5 5 2 5 3 5 5 16 39 64 10
86 97 100 90 97 83 93 28 5 6 67 100 100 61 81 100 100 20 13 25 92 99 100 100 100 100 95 100 7 47 50 5 5 5 4 5 4 5 6 100 99 91 62
91 38 98 100 100 64 5 5 25 100 100 98 5 74 99 94 0 0 0 5 99 100 100 100 100 100 36 100 7 5 5 5 5 5 5 5 5 4 5 5 5 88 99
5 63 89 15 62 54 14 96 95 46 20 6 5 3 0 0 3 0 0 42 26 78 100 100 100 90 100 100 34 5 5 5 6 5 5 5 5 5 5 17 94 90 40
18 5 5 5 10 43 49 8 5 20 42 24 3 0 0 5 4 2 5 70 100 99 100 100 100 98 100 42 5 5 14 49 11 5 5 5 5 32 59 100 99 100 100
5 5 5 5 5 5 5 5 6 52 4 0 0 0 0 3 2 0 5 92 95 100 100 100 90 49 5 5 30 45 14 5 5 5 5 54 97 100 100 100 86 100 100
5 5 5 5 5 8 5 6 5 5 1 5 4 4 5 4 2 52 99 100 83 62 100 99 5 5 5 4 5 92 93 59 36 64 33 87 100 100 100 100 100 100 100
5 5 5 4 5 5 7 12 0 1 1 0 2 5 1 1 5 43 95 100 79 100 100 76 58 5 4 4 5 27 29 89 84 45 86 100 100 100 100 100 100 100 100
5 5 5 5 5 30 5 0 0 0 1 4 1 2 0 0 5 54 100 83 95 98 95 26 5 5 5 5 4 6 92 90 68 95 95 100 100 100 100 100 100 100 100
5 5 5 14 5 5 0 0 0 4 5 5 5 5 5 5 7 98 97 99 96 82 5 5 34 6 6 5 4 5 24 5 68 99 100 100 100 100 100 100 100 100 100
36 42 5 5 4 2 1 1 5 5 37 70 33 16 5 5 65 82 88 92 80 15 5 5 5 58 5 5 5 77 29 32 73 5 63 100 100 100 100 100 100 100 100
33 5 5 5 5 5 5 5 5 44 99 83 100 88 5 5 42 94 94 21 61 6 5 6 10 62 66 17 94 98 99 98 90 39 34 92 100 100 100 100 100 100 100
19 8 5 5 5 5 33 57 62 86 89 100 96 98 6 16 65 83 100 94 34 5 22 5 24 22 17 19 99 100 93 79 38 30 77 71 97 100 100 100 100 100 100

GFSMW_prec_cloud_033.txt.gz
Cloud_Cover
5 5 5 4 1 5 87 100 100 100 51 47 98 82 49 5 5 5 5 4 54 99 86 46 5 9 4 5 5 5 3 0 0 2 5 5 6 61 98 100 70 20 5
6 6 0 2 44 98 46 42 8 74 97 75 40 60 5 5 5 5 3 5 42 8 0 0 1 24 15 4 1 0 0 0 2 2 4 5 38 6 5 5 5 5 5
10 5 5 40 46 4 2 4 2 0 0 4 5 5 5 5 5 16 10 5 5 1 0 0 2 1 1 0 0 0 0 0 0 0 2 3 4 3 0 0 0 0 0
73 85 7 5 5 23 1 1 0 0 0 2 2 2 38 8 7 4 1 2 2 4 5 5 5 5 12 4 5 2 0 0 5 1 4 5 26 66 29 5 0 0 0
100 81 14 10 6 5 6 5 5 5 4 78 100 98 92 100 100 100 98 100 100 100 100 100 100 94 90 52 0 0 2 5 14 7 27 52 42 65 74 100 90 18 4
100 100 100 100 98 86 97 96 52 5 31 82 100 100 100 100 100 100 100 100 100 100 73 13 38 6 0 0 0 0 5 5 5 30 78 86 96 100 100 100 34 62 5
100 100 100 100 100 100 93 8 5 5 91 100 100 100 100 100 100 100 100 100 67 56 74 3 0 0 0 0 0 5 5 5 3 2 5 6 24 29 95 100 100 100 85
94 100 100 100 100 97 7 6 21 99 100 100 100 100 100 100 100 100 98 8 4 0 0 0 0 0 0 0 0 0 0 0 0 0 2 6 10 30 98 97 99 54 59
81 5 5 66 5 5 10 88 93 100 100 100 100 100 92 95 23 5 5 5 5 4 0 0 3 5 5 0 5 3 5 0 0 0 0 0 4 5 36 74 67 99 83
0 0 4 5 38 68 7 5 5 5 16 34 17 5 5 5 5 5 5 5 4 1 4 33 62 95 84 30 41 64 21 11 5 5 5 2 5 9 14 34 26 67 75
6 60 68 34 64 19 26 76 5 5 19 5 5 11 5 5 5 5 5 5 9 86 6 35 100 55 88 100 100 100 100 100 48 46 9 38 92 96 30 14 10 5 5
55 33 53 99 89 97 80 57 88 100 12 10 5 5 4 5 5 38 83 99 95 90 70 59 65 99 93 100 100 100 100 100 100 72 2 5 5 5 5 5 5 5 5
9 24 31 80 72 95 95 100 81 5 5 5 5 5 5 15 79 84 22 35 4 0 5 28 99 100 100 100 100 100 100 72 26 5 5 5 5 5 5 5 5 5 58
6 5 60 96 100 100 96 57 5 5 5 4 5 5 5 6 46 39 1 0 0 0 0 89 100 100 100 100 100 64 5 6 20 6 5 5 5 5 5 5 5 91 100
15 95 100 100 100 80 30 5 5 5 5 5 5 5 5 5 0 0 0 1 4 0 30 92 31 100 100 100 100 17 58 5 5 5 5 5 5 51 42 38 7 5 54
99 99 100 99 48 5 5 5 5 5 5 5 5 5 5 0 0 0 0 0 4 75 100 100 100 100 100 100 100 65 5 5 5 10 28 5 5 5 45 19 5 63 96
100 95 14 5 5 5 56 5 5 5 5 23 6 5 3 0 0 0 5 0 4 99 100 100 100 100 99 100 20 5 5 52 94 63 5 5 6 5 7 99 100 65 31
5 5 5 5 5 5 13 24 14 5 5 5 5 5 0 0 0 5 5 48 65 88 100 100 100 96 100 12 7 5 5 5 5 5 5 5 25 29 100 100 100 100 98
8 5 5 5 5 82 100 65 6 18 11 6 5 2 0 0 5 48 27 100 100 94 84 88 82 72 62 5 12 50 8 5 5 15 5 95 95 77 100 100 100 100 100
80 13 48 9 100 89 72 48 30 72 46 5 0 3 1 6 99 14 10 100 100 100 53 49 5 27 5 2 5 18 13 77 65 5 5 36 100 100 100 100 100 100 100
11 20 49 92 60 98 76 71 80 22 4 2 5 5 5 100 2 89 100 100 100 77 74 54 87 7 5 5 5 35 5 39 30 77 85 62 96 100 100 100 100 100 100
54 73 36 40 15 41 66 30 5 5 5 5 5 45 91 33 5 99 100 98 70 63 96 68 5 5 5 5 5 50 97 50 98 99 88 97 100 100 100 100 100 100 100
52 60 54 71 71 82 8 5 5 5 5 6 99 96 86 5 5 100 100 99 84 63 7 31 58 6 5 5 5 38 88 5 7 6 56 89 75 100 100 100 100 100 100
97 96 98 99 64 48 5 5 5 5 23 78 100 100 97 16 7 100 100 100 81 38 7 28 54 58 5 5 6 95 62 8 18 5 11 5 61 100 100 100 100 100 100
100 100 90 70 14 5 5 5 5 39 98 100 100 100 95 71 5 98 100 100 97 63 5 17 14 85 81 20 72 99 89 57 33 27 46 32 29 85 100 100 100 100 100
97 99 86 5 5 5 35 14 80 100 100 100 94 100 96 84 73 49 98 100 100 91 61 5 15 57 19 14 99 88 32 36 3 33 93 96 91 91 100 100 100 100 100

GFSMW_prec_cloud_036.txt.gz
Cloud_Cover
72 76 53 63 32 67 100 100 100 100 100 100 100 100 100 60 5 5 5 0 0 5 2 5 5 5 4 0 0 0 0 0 0 5 5 5 5 5 5 5 5 5 5
5 5 5 21 22 96 93 72 37 52 91 96 6 4 5 5 2 0 0 0 0 3 5 5 5 3 1 0 0 0 0 5 5 5 5 5 5 23 5 5 5 5 5
4 5 4 12 54 21 44 86 100 67 2 0 0 3 0 0 0 0 0 0 0 0 1 2 5 0 0 0 0 0 0 0 0 0 0 3 2 6 3 0 0 0 0
5 5 5 12 8 19 9 5 4 5 5 5 2 1 0 0 3 5 5 2 4 5 5 5 5 5 5 0 2 0 0 0 2 4 5 5 41 65 68 24 5 0 0
5 5 46 45 100 63 99 22 6 9 5 5 64 28 5 5 5 5 5 5 11 6 5 20 5 6 6 5 3 5 4 2 5 5 5 5 5 23 88 100 20 55 4
5 12 100 100 100 99 95 100 99 95 100 100 69 70 70 5 5 5 5 5 23 92 93 35 5 5 5 5 5 0 2 5 4 2 3 12 76 100 97 98 100 100 38
5 5 5 84 100 100 100 78 42 18 98 47 23 66 8 6 45 44 52 99 94 78 7 5 15 6 4 2 4 4 3 2 2 2 3 5 31 52 100 53 99 82 5
67 77 98 88 34 36 20 32 53 72 6 25 97 88 98 100 100 100 48 10 9 63 53 7 5 5 5 5 5 6 54 76 94 97 100 93 76 3 8 5 40 21 5
96 84 5 5 5 62 99 87 21 58 69 70 100 98 93 36 5 5 46 22 31 10 5 5 5 5 57 82 17 93 100 92 36 90 51 73 70 8 10 57 89 99 43
4 2 4 5 36 32 5 75 47 47 27 47 5 5 3 5 5 5 13 5 5 5 5 5 2 64 66 82 89 100 100 94 100 100 100 98 51 12 68 90 52 50 23
5 4 2 4 5 5 48 14 69 62 84 87 33 5 6 5 5 5 5 11 5 5 2 0 1 9 20 15 65 90 100 100 98 69 83 27 5 3 5 5 5 5 5
5 5 5 39 60 85 91 98 60 100 74 70 29 21 48 9 5 5 3 2 0 0 0 0 0 2 5 88 86 100 100 100 100 100 100 5 5 5 5 5 5 5 5
5 5 8 97 88 83 100 100 97 10 5 5 9 5 5 5 2 0 0 2 1 2 0 5 10 59 100 99 97 73 100 100 96 38 5 5 5 5 5 5 5 5 5
5 89 100 90 66 100 100 59 38 60 5 5 5 5 5 5 3 5 5 5 5 3 2 30 78 96 80 20 44 80 91 92 92 5 5 5 5 5 5 29 53 61 54
7 79 76 89 78 100 99 97 50 5 5 5 5 5 5 5 5 6 44 5 0 0 4 100 100 81 42 92 77 35 85 79 5 5 9 5 41 96 100 98 97 100 96
6 77 100 86 100 84 58 22 15 5 5 5 5 5 5 6 48 32 0 2 4 4 98 75 100 100 100 88 88 78 5 5 8 94 93 5 5 5 99 89 67 96 100
46 96 96 80 47 8 93 63 26 30 6 5 16 81 100 94 6 4 4 5 6 34 84 99 95 98 90 96 50 5 5 5 5 5 5 6 22 24 12 7 65 68 100
79 48 82 100 27 35 79 98 97 64 39 85 100 100 34 5 5 5 4 5 24 100 100 94 75 38 5 5 5 5 5 5 5 5 7 24 23 5 100 94 88 100 100
94 95 97 100 97 66 73 100 100 99 100 100 100 29 6 5 5 5 10 78 100 100 54 69 55 5 5 5 5 5 5 5 5 5 5 94 97 89 100 98 100 100 100
100 100 100 100 100 100 99 88 100 100 100 66 83 5 5 5 5 5 99 100 100 100 96 99 13 5 5 5 5 27 5 25 16 8 5 6 100 100 100 100 100 100 100
100 100 100 98 100 100 100 100 100 100 99 8 5 5 19 61 12 39 99 95 99 97 96 80 6 5 5 5 5 72 74 25 64 75 70 78 98 100 100 100 100 100 100
100 100 100 100 100 96 100 100 99 100 32 5 5 5 70 100 74 58 100 100 97 100 100 90 10 6 5 5 5 66 95 97 53 33 33 74 100 100 100 100 100 100 100
100 100 100 100 100 100 100 100 94 54 5 5 5 75 100 100 96 94 100 100 100 100 82 40 74 5 5 5 5 5 61 17 6 5 7 52 8 8 14 88 100 100 100
100 100 100 100 100 100 100 94 70 5 5 6 90 100 100 100 97 70 75 98 100 100 61 69 55 58 5 8 5 76 74 5 5 5 5 5 5 5 17 78 100 100 100
100 100 100 100 100 100 100 100 38 21 16 23 100 100 100 100 96 34 5 87 100 83 75 72 70 86 99 21 17 98 66 5 5 33 38 16 14 5 77 33 98 100 100
100 100 100 100 100 100 100 100 100 60 48 84 100 100 100 100 100 85 62 84 86 94 100 99 96 99 55 7 76 83 21 5 5 5 83 100 100 92 98 95 71 100 100

GFSMW_prec_cloud_039.txt.gz
Cloud_Cover
49 100 100 100 59 61 32 75 94 86 83 100 100 100 100 100 100 100 100 100 100 100 98 5 5 5 5 5 5 5 5 5 5 5 2 0 1 1 4 5 5 5 18
91 69 77 70 52 44 41 13 55 67 72 72 5 5 72 100 76 100 98 21 1 1 0 0 0 0 0 0 2 4 2 5 4 2 4 2 3 4 3 5 5 5 10
6 29 5 4 5 5 5 23 24 5 15 5 1 5 50 5 5 5 8 5 5 0 3 5 2 14 74 93 99 97 78 5 1 0 4 0 0 5 4 3 5 3 5
5 5 4 5 5 88 80 56 5 5 5 3 5 61 48 60 82 5 3 5 5 5 5 43 95 100 100 42 8 1 0 0 3 4 5 5 35 96 94 72 69 8 5
5 4 5 5 17 68 13 69 42 8 92 99 92 74 77 91 91 54 5 5 7 71 100 100 96 6 5 5 5 0 0 0 5 14 12 35 53 87 100 58 54 34 80
0 3 5 29 25 47 72 62 100 89 74 84 19 5 16 5 4 4 5 46 100 99 68 6 4 2 0 0 5 5 5 6 5 5 5 5 5 6 89 58 34 42 11
5 5 8 92 100 97 98 50 73 84 80 72 78 27 5 17 5 5 39 78 16 4 5 5 5 5 5 3 5 18 5 48 95 78 24 64 62 29 91 81 99 38 5
5 20 99 100 96 8 7 8 32 69 61 29 82 76 79 92 5 14 3 5 5 5 5 6 5 5 5 5 5 5 5 11 42 86 100 76 54 87 93 75 60 23 5
5 40 88 51 0 5 5 5 6 26 79 100 100 100 100 10 5 5 5 7 40 89 79 8 5 1 0 0 1 5 6 25 89 93 99 90 62 100 100 7 5 59 29
5 5 4 0 0 2 5 8 94 100 100 100 98 89 6 5 5 16 56 61 31 5 5 0 0 2 0 5 81 11 74 56 100 94 100 100 90 76 17 5 5 20 60
2 0 0 2 5 5 5 62 77 95 100 100 100 30 5 5 5 8 5 5 3 4 1 1 0 0 6 98 78 35 83 100 63 17 34 46 5 5 7 66 79 54 5
0 2 5 5 5 5 45 86 89 100 100 100 21 5 5 5 5 5 3 5 5 1 5 0 0 5 98 100 42 100 99 100 100 76 8 11 5 5 66 90 98 92 79
5 5 5 16 65 86 94 61 72 100 100 9 5 5 5 5 5 5 5 5 5 4 5 5 10 27 97 100 84 63 65 6 5 5 7 5 5 19 96 100 100 100 100
5 5 20 100 100 100 54 83 100 77 6 36 8 5 8 38 8 6 27 5 5 5 5 26 96 75 63 41 15 25 5 5 5 5 5 14 86 100 100 100 100 100 100
5 5 69 100 97 86 99 88 7 8 90 76 41 5 5 23 56 97 38 15 51 5 3 18 100 55 70 68 76 5 19 35 5 5 5 23 48 60 41 90 99 100 100
5 5 86 99 100 100 89 62 85 98 78 69 69 65 78 100 100 100 35 68 7 5 60 100 56 81 86 70 5 5 5 5 5 3 0 5 5 33 94 98 100 100 100
12 58 98 99 100 94 100 100 100 100 100 100 100 100 100 100 100 57 14 5 21 32 90 95 99 97 94 11 5 5 5 5 2 0 5 7 74 83 100 100 84 91 98
60 96 87 96 90 80 95 100 96 98 100 100 100 100 100 100 47 87 76 12 75 100 100 100 90 79 29 5 5 5 5 3 3 5 38 99 100 100 100 100 100 100 100
98 100 100 100 93 100 100 100 100 100 100 100 100 100 100 88 100 100 8 89 100 60 100 95 84 86 5 5 5 5 5 5 14 90 100 100 100 100 100 100 100 100 100
100 100 100 100 100 100 100 100 100 100 100 100 100 98 16 100 20 5 8 94 97 91 100 98 78 25 5 5 5 5 86 100 100 100 100 100 96 100 100 100 100 100 100
100 100 100 99 100 100 100 100 100 100 100 96 39 23 100 86 11 67 8 68 99 96 100 97 75 22 5 5 5 5 92 99 100 100 100 100 100 100 100 99 100 100 100
100 100 100 100 100 100 100 100 100 100 100 47 92 100 94 14 91 95 60 79 95 99 99 100 45 5 5 5 5 5 75 78 100 100 87 87 86 82 69 82 98 100 100
100 100 100 100 100 100 100 100 100 100 100 100 100 94 6 73 100 98 62 70 92 89 91 68 64 81 60 25 48 5 6 68 52 74 6 7 5 5 5 12 86 77 100
100 100 100 100 100 100 100 100 100 100 100 100 100 37 100 91 100 97 70 82 84 87 86 91 97 100 83 83 66 33 98 72 50 7 5 5 5 4 5 5 42 45 100
100 100 100 100 100 100 100 100 100 100 100 100 81 92 33 90 100 91 66 18 11 63 96 99 91 97 97 80 50 43 99 89 56 4 5 5 5 5 5 5 10 54 89
99 100 100 100 100 100 100 100 100 100 98 96 93 97 44 65 93 81 66 15 50 5 50 98 99 100 99 76 59 52 90 5 5 5 5 5 5 5 5 5 5 44 70

GFSMW_prec_cloud_042.txt.gz
Cloud_Cover
100 100 99 53 55 86 100 100 100 94 100 100 85 100 100 100 100 100 100 100 100 100 100 100 100 100 2 2 5 2 5 5 5 5 4 0 0 6 6 5 5 10 5
66 92 82 48 65 94 100 68 66 35 5 5 5 5 60 96 97 91 34 7 92 91 88 19 63 11 4 22 99 100 100 92 11 5 3 1 3 0 67 37 5 5 5
100 100 86 75 83 73 51 12 27 17 5 16 52 20 84 100 100 100 100 100 100 100 95 11 5 5 74 100 100 100 84 4 3 12 53 7 2 4 12 88 55 11 5
26 7 1 5 3 5 5 5 5 5 24 75 54 57 45 64 6 5 5 5 2 0 0 5 5 12 96 100 53 6 5 5 5 18 86 96 98 69 43 60 93 8 5
4 2 5 5 15 5 5 77 89 93 95 56 8 60 38 5 5 5 5 5 1 3 5 5 5 41 6 5 5 12 6 20 90 84 88 42 66 76 100 100 89 99 100
0 2 5 17 5 5 11 89 11 84 55 5 5 9 34 40 5 5 65 5 3 4 5 5 5 5 5 5 5 5 5 38 42 95 100 74 98 100 100 100 98 96 100
0 2 5 5 5 5 5 5 5 5 33 26 7 59 31 9 36 83 55 5 3 5 5 4 5 5 5 5 5 53 89 91 97 100 83 74 60 100 100 100 100 100 83
2 5 5 5 5 15 50 5 5 5 5 5 51 23 91 61 92 43 5 5 5 5 5 5 5 5 5 5 6 16 67 99 84 72 98 85 100 100 100 100 100 100 82
0 5 5 12 63 12 3 4 5 5 5 23 83 95 94 87 96 72 8 76 48 5 5 5 5 5 5 5 5 8 81 96 26 93 95 100 100 100 100 100 100 100 98
0 5 5 71 5 0 3 5 5 8 33 68 62 97 100 94 68 5 17 13 5 5 5 5 11 23 5 5 12 36 64 92 94 89 100 100 100 100 100 100 100 100 96
5 5 5 5 5 1 5 5 22 36 93 99 100 100 99 98 67 54 9 5 5 5 9 5 5 5 5 66 25 77 92 45 94 100 100 100 100 100 100 100 100 100 100
5 5 5 5 5 5 5 5 5 41 100 100 100 100 86 6 5 5 15 5 8 35 5 15 9 5 69 54 98 98 32 91 100 100 98 100 100 100 100 100 100 100 100
5 5 5 5 5 67 39 5 43 100 100 100 72 5 5 5 5 25 35 19 53 92 5 5 5 60 98 95 68 60 100 98 100 100 100 98 96 83 97 99 100 100 100
5 5 5 5 65 95 12 33 99 87 89 5 5 6 48 72 78 91 49 100 96 28 5 5 15 97 100 99 100 92 97 100 100 98 84 42 70 55 33 10 28 99 100
5 5 5 81 83 92 18 100 100 100 17 28 61 30 79 62 74 96 100 100 22 32 9 56 74 27 89 81 91 100 100 100 62 6 5 5 3 2 48 28 76 100 100
80 59 5 5 84 79 93 100 92 20 72 86 82 72 76 99 100 100 100 33 18 37 88 70 100 100 100 5 5 5 70 6 5 5 1 5 5 32 6 84 62 60 98
52 47 5 5 77 92 100 74 64 100 92 86 79 90 100 100 100 77 21 35 97 69 93 100 78 100 100 5 5 5 5 5 5 5 5 5 26 99 100 100 76 91 100
11 5 30 98 99 100 100 97 86 92 97 100 100 100 100 100 99 100 100 100 100 95 100 75 100 100 98 5 5 5 5 7 5 13 5 63 100 100 82 100 100 100 100
5 46 100 100 100 100 99 80 100 100 100 100 100 100 100 98 100 100 94 100 100 100 99 98 100 100 100 5 5 5 30 90 87 84 93 93 99 100 83 100 100 100 100
16 99 100 100 100 99 100 100 100 100 100 100 100 100 100 100 100 100 100 100 100 100 100 100 100 97 76 54 5 16 72 90 97 94 97 100 62 7 100 100 100 100 100
10 92 100 100 95 100 100 100 100 100 100 100 100 100 100 100 100 100 100 100 100 100 100 100 100 100 96 90 17 42 18 95 99 94 96 100 21 38 100 87 100 96 99
42 100 100 100 100 100 100 100 100 100 100 100 100 100 100 100 100 100 96 100 100 100 100 97 75 92 100 92 85 86 6 16 96 98 99 85 5 5 14 28 7 59 99
99 80 100 100 100 100 100 100 100 100 100 100 100 100 100 100 100 80 100 100 100 100 100 100 100 100 100 100 100 98 6 28 88 94 12 5 5 5 5 4 5 44 62
100 100 100 100 100 100 100 100 100 100 100 100 100 100 100 96 98 96 100 100 100 100 100 100 100 100 100 100 100 100 100 100 100 100 11 9 5 5 5 16 5 5 17
100 100 100 100 100 100 100 100 100 100 100 100 100 100 99 94 94 100 100 100 100 98 98 100 100 100 100 100 98 71 93 100 85 5 86 100 82 5 5 5 5 5 5
100 100 100 100 100 100 100 100 100 100 100 100 100 100 92 100 96 91 99 100 93 25 5 5 6 36 97 98 99 67 44 94 5 44 99 100 100 100 18 5 5 5 5

GFSMW_prec_cloud_045.txt.gz
Cloud_Cover
100 100 100 100 100 100 100 100 92 82 28 7 52 99 100 100 100 98 100 76 76 96 95 100 100 100 82 100 90 4 6 53 49 10 13 62 97 28 4 3 44 84 74
100 100 100 99 75 59 99 100 89 100 92 97 14 6 30 65 84 72 53 17 14 7 5 90 10 4 5 5 28 100 100 100 100 99 50 7 3 5 3 40 80 58 31
76 49 9 37 91 100 91 100 99 7 17 5 5 10 54 56 59 59 52 41 17 5 5 1 2 5 5 11 29 89 87 44 37 5 29 37 48 30 42 3 5 55 84
29 42 78 91 82 72 55 42 5 5 5 5 5 33 12 39 65 13 5 5 5 5 5 0 0 5 5 5 5 5 5 8 75 21 94 41 90 87 56 85 37 8 71
30 19 23 52 29 4 5 5 5 5 5 5 6 16 17 31 13 40 5 7 10 12 5 5 5 5 5 5 5 5 18 89 98 100 100 95 93 97 93 79 94 78 85
14 1 1 2 0 0 5 5 5 5 3 4 5 5 6 7 11 36 78 84 14 5 7 5 5 24 5 5 5 5 9 97 78 63 79 93 84 91 94 90 68 79 43
0 0 0 0 0 5 5 5 5 15 6 16 8 5 5 5 5 32 78 98 77 50 33 5 5 5 5 5 5 3 7 76 73 88 85 100 82 89 95 93 74 90 94
0 0 0 0 3 5 5 5 28 97 88 56 6 5 5 38 7 64 97 92 88 91 12 5 5 5 5 5 5 5 90 99 82 73 100 86 86 91 98 86 99 11 87
0 0 0 0 0 4 6 16 37 100 92 5 5 5 15 60 100 94 58 97 63 5 5 5 5 5 5 5 5 7 100 55 77 75 16 36 98 100 88 90 93 88 5
0 0 0 0 7 20 73 52 38 95 49 5 5 23 92 97 100 98 80 10 27 28 5 5 5 5 5 5 14 53 95 6 58 78 78 93 100 93 77 99 100 34 68
0 0 12 25 34 61 54 42 30 12 5 5 48 98 100 100 74 14 5 6 5 60 87 73 57 5 5 7 15 5 47 64 94 44 79 91 94 90 93 88 86 99 97
3 20 44 51 37 8 18 27 28 78 10 59 83 100 94 51 5 5 5 5 56 84 69 64 5 5 5 7 6 73 88 89 90 75 95 100 99 100 96 100 100 74 98
4 10 34 32 18 14 5 25 24 61 36 22 100 56 89 10 5 5 13 25 58 69 82 19 90 44 13 29 15 97 86 100 100 100 100 99 100 51 70 8 6 5 7
4 5 5 5 86 99 87 66 80 57 38 100 99 54 34 35 65 68 58 69 78 90 100 100 100 100 83 88 81 100 100 95 100 100 100 38 19 55 18 5 5 6 83
5 5 5 52 46 6 9 82 81 93 34 100 82 90 97 80 71 92 100 100 100 100 100 100 89 99 100 100 37 44 91 100 94 62 13 46 6 4 0 5 49 99 100
4 5 5 15 49 8 5 84 67 87 72 100 100 100 100 94 100 100 100 100 100 100 96 100 100 100 100 62 5 5 19 5 22 19 19 5 5 75 5 86 80 6 94
5 8 47 91 31 16 62 70 81 100 100 100 100 99 100 100 100 100 96 100 100 100 100 100 100 100 100 22 5 5 1 5 35 63 59 5 26 95 75 87 93 99 100
5 78 58 95 5 16 68 70 97 100 100 100 99 100 100 100 100 100 100 100 100 100 100 100 100 100 98 89 5 5 3 45 91 72 75 80 87 100 5 14 96 100 100
7 40 70 5 5 12 77 99 100 100 100 100 100 100 100 100 100 100 100 100 100 100 100 100 98 100 100 100 6 5 5 82 95 78 90 58 84 74 5 5 100 100 100
100 99 54 9 29 94 99 98 100 100 100 100 100 100 100 100 100 100 100 100 100 100 100 100 99 89 100 89 29 5 6 97 100 78 88 85 5 5 5 39 96 100 98
99 82 49 63 79 100 89 100 100 100 100 100 100 100 100 100 100 100 100 100 100 100 100 100 99 98 100 100 86 8 5 95 100 83 95 100 26 5 5 28 78 86 5
7 23 69 82 98 96 100 100 100 100 100 100 100 100 100 100 100 100 100 100 100 100 100 100 100 100 98 99 73 35 11 90 100 95 98 95 5 5 5 5 8 1 23
63 99 98 63 96 100 100 100 100 100 100 100 100 100 100 100 100 100 100 100 100 100 100 100 99 95 96 90 75 70 73 95 100 98 70 5 5 5 5 5 5 5 99
71 94 100 100 100 100 100 100 100 100 100 100 100 100 100 100 100 100 100 99 76 100 100 100 99 100 98 100 100 89 99 98 100 94 98 31 9 13 22 62 100 100 96
100 100 100 100 100 100 100 100 100 100 100 100 100 100 100 100 100 100 82 76 100 100 100 100 100 100 73 98 98 97 96 100 100 88 58 99 100 100 100 100 100 100 98
100 100 100 100 100 100 100 100 100 100 100 100 100 100 100 100 95 74 8 85 100 98 73 22 26 5 5 5 85 90 35 81 95 77 99 99 98 100 100 100 100 100 95

GFSMW_prec_cloud_048.txt.gz
Cloud_Cover
100 100 100 100 100 100 100 100 100 100 100 71 87 23 5 5 22 17 5 5 4 31 74 15 26 3 1 0 2 5 5 5 5 5 5 5 8 5 62 5 2 2 78
100 100 100 100 78 36 44 100 100 95 36 24 6 5 5 4 0 3 5 4 6 5 5 5 5 5 4 5 3 0 2 3 5 2 5 5 3 0 1 0 0 3 58
100 100 100 100 100 100 100 100 73 10 51 90 5 5 0 0 5 5 5 7 59 5 5 5 5 5 5 5 3 0 0 0 5 2 3 5 5 5 5 3 1 4 5
100 100 100 96 70 52 100 83 27 4 33 5 3 0 5 5 5 6 63 3 5 5 5 5 5 5 36 5 0 0 0 0 2 1 5 4 6 6 5 4 3 5 1
65 66 85 90 44 86 1 1 16 0 5 5 5 5 34 96 100 90 21 18 7 5 6 5 5 5 5 5 4 5 5 5 5 5 3 5 5 5 14 8 5 4 3
78 98 100 100 24 1 42 87 0 1 5 5 5 5 37 17 34 5 5 5 39 89 38 5 5 5 5 2 5 5 5 5 5 4 5 22 100 43 86 63 5 5 0
5 2 5 51 99 2 0 0 0 6 5 5 1 0 7 5 5 6 52 42 96 98 88 15 0 0 4 5 5 5 5 4 5 5 5 94 100 100 100 88 22 4 4
0 0 3 2 0 0 0 0 3 5 4 27 9 3 5 5 8 13 84 67 99 100 46 2 2 4 5 5 5 5 5 3 80 6 5 66 80 79 81 83 87 5 5
0 0 0 0 0 0 0 5 5 6 5 100 100 33 20 22 73 87 100 100 75 8 5 5 5 5 5 5 5 5 5 27 24 27 5 81 11 5 100 100 29 78 23
0 0 0 0 0 0 0 3 8 100 100 100 59 20 25 89 72 97 100 100 94 5 5 6 21 17 5 5 5 5 44 60 5 5 5 74 8 82 95 85 5 30 73
0 0 0 23 2 96 74 21 10 100 100 100 7 36 75 90 100 100 100 22 50 5 5 71 44 5 44 46 5 31 12 5 5 5 19 23 80 74 57 10 5 50 99
0 0 0 99 100 100 100 100 85 100 100 99 69 95 96 100 100 98 99 100 57 22 90 61 5 65 20 34 72 37 5 5 9 98 100 50 6 38 5 79 54 5 5
2 4 32 100 100 100 93 100 91 98 86 82 86 100 100 100 100 100 100 81 92 100 53 61 100 88 86 94 100 83 37 24 96 96 22 90 86 43 42 5 0 1 0
3 36 100 100 100 100 100 100 100 100 96 99 100 100 100 99 100 98 88 99 81 80 93 100 100 91 98 92 83 44 10 84 88 92 99 84 5 4 5 5 5 1 4
4 26 91 84 42 69 100 100 100 78 89 100 100 100 79 100 100 100 95 100 100 100 100 100 100 57 90 88 93 100 95 96 68 90 95 12 5 5 5 5 5 5 5
5 5 5 5 23 100 100 100 75 63 100 100 100 100 100 100 86 93 100 100 100 100 100 100 100 100 100 100 100 100 88 41 89 2 5 5 5 5 5 5 5 28 6
5 5 5 10 98 100 100 97 65 92 100 100 100 100 100 100 100 100 100 100 100 100 100 100 100 100 100 100 100 63 36 69 5 5 21 5 5 5 5 4 3 0 3
33 10 5 5 100 100 100 100 100 100 94 70 100 100 100 100 100 100 100 100 100 100 100 100 100 100 100 100 100 43 5 5 4 92 42 5 24 5 5 4 0 1 5
5 5 5 85 93 36 30 32 67 100 90 99 100 100 100 100 100 100 100 100 100 100 100 100 100 100 100 100 100 100 10 5 5 5 5 61 64 5 5 5 4 5 4
5 9 99 100 35 5 5 7 49 100 100 100 100 100 100 100 100 100 100 100 100 100 100 100 100 100 100 81 100 94 5 8 5 62 46 82 72 5 5 5 5 5 5
100 100 96 11 18 36 82 96 85 100 100 100 100 100 100 100 100 100 100 100 100 100 100 100 100 87 97 25 40 65 66 39 55 100 97 83 88 5 4 4 5 5 4
100 90 52 93 83 90 100 100 100 100 100 100 100 100 100 100 100 100 100 100 100 100 100 97 100 79 19 5 5 20 23 5 33 100 100 100 67 5 5 2 2 4 5
80 92 59 88 88 80 100 100 100 100 100 100 100 100 100 100 100 100 100 100 93 100 100 91 5 5 5 5 35 44 98 5 5 75 100 100 100 57 5 2 5 5 5
50 56 100 100 100 100 100 100 100 100 100 100 100 100 100 100 100 100 100 100 100 92 8 5 5 23 81 77 95 93 59 99 31 53 89 100 100 62 52 6 14 56 24
100 100 100 100 100 100 100 91 98 99 100 100 100 100 100 100 100 100 100 87 18 41 5 85 72 64 26 98 100 55 96 100 100 99 99 100 100 100 88 57 80 52 33
100 100 100 100 100 93 81 81 98 100 100 100 100 100 100 100 60 18 5 5 3 5 32 30 97 92 96 100 98 73 5 76 100 91 39 100 100 100 100 57 5 81 38

GFSMW_prec_cloud_051.txt.gz
Cloud_Cover
100 100 100 100 100 100 100 100 75 100 100 100 100 100 100 100 100 100 29 5 5 5 2 0 0 0 0 0 2 0 0 5 0 0 0 0 0 0 0 0 0 0 0
97 79 91 100 98 76 49 100 100 100 100 99 66 57 98 72 6 52 16 3 4 5 5 5 3 5 5 5 5 5 4 0 0 0 0 0 0 0 0 0 4 5 4
70 83 47 66 100 100 100 100 100 100 100 100 100 59 55 42 17 1 0 5 5 5 5 3 1 0 2 5 5 1 0 0 0 0 0 2 1 5 5 6 22 16 5
72 32 100 100 95 80 47 59 93 20 16 7 15 16 2 0 0 0 2 0 0 0 0 0 0 4 5 5 0 0 0 0 0 0 0 0 2 5 5 36 11 5 5
100 100 99 98 74 76 43 11 5 5 5 1 47 2 1 0 0 0 3 12 33 76 6 5 5 5 1 4 5 5 5 0 0 5 5 5 5 5 5 6 5 5 5
76 18 40 30 84 91 20 1 0 0 4 66 5 5 0 0 14 86 97 100 71 51 5 5 5 5 0 0 3 4 4 5 5 5 5 4 5 8 82 50 6 5 5
20 62 5 10 4 0 0 0 1 0 10 5 5 5 1 1 9 13 16 92 99 38 60 76 7 5 5 5 5 5 6 47 5 2 4 11 78 81 18 98 58 60 5
0 3 2 0 0 0 0 31 100 0 4 3 5 5 5 20 56 91 100 72 71 100 100 100 26 5 5 5 5 6 43 55 5 5 5 9 53 100 97 86 84 23 5
4 0 0 0 0 0 0 18 39 0 4 5 7 86 46 18 92 86 89 100 64 94 100 100 100 100 77 38 61 7 25 5 9 5 7 44 86 99 66 99 100 99 93
0 0 0 0 0 0 0 0 0 19 42 73 91 100 100 90 98 96 100 100 100 100 100 100 99 91 93 87 62 18 67 99 65 16 96 72 82 95 100 100 100 100 77
0 0 0 0 0 0 0 0 1 14 99 100 100 100 100 100 100 76 100 100 100 100 100 93 98 93 85 99 89 96 96 68 19 58 98 100 100 100 96 99 34 5 5
0 0 0 0 0 1 73 49 99 100 100 100 100 100 100 100 100 100 100 100 100 100 90 99 91 61 100 100 100 81 53 23 87 100 100 100 100 100 100 70 5 5 5
0 0 0 3 11 96 99 100 100 100 100 100 100 100 100 100 100 100 99 98 76 82 100 98 87 100 97 100 100 100 97 100 100 100 100 100 100 100 43 5 2 5 5
0 0 2 5 73 97 100 92 81 100 100 100 100 100 100 100 100 78 92 100 97 97 100 90 98 100 100 100 100 100 100 100 100 100 100 100 100 33 5 3 5 5 2
0 0 5 8 94 26 32 39 45 100 100 100 100 100 100 98 100 98 100 100 98 100 100 100 100 100 100 100 100 100 100 100 100 99 100 70 4 5 2 5 5 5 5
4 5 5 6 17 84 5 5 91 91 100 100 100 100 100 100 100 100 99 100 100 100 100 100 100 100 100 100 100 100 100 100 82 95 38 0 4 2 5 5 5 5 5
5 5 5 5 5 5 5 5 35 94 100 100 100 100 100 100 100 100 100 100 100 100 100 100 100 100 100 100 100 100 100 100 88 40 5 5 5 5 5 5 5 3 0
38 90 100 7 5 5 5 39 94 100 100 100 100 100 99 100 100 100 100 100 100 100 100 100 100 100 100 100 100 100 100 34 92 32 5 5 5 54 5 5 5 2 1
49 35 5 5 5 7 62 86 55 41 94 100 100 100 100 100 100 100 100 100 100 100 100 100 100 100 100 100 100 59 66 95 99 68 5 5 5 5 5 34 11 4 4
5 5 5 17 50 53 100 49 12 78 84 89 90 100 100 100 100 100 100 100 100 100 100 100 100 100 100 72 5 36 83 100 98 5 5 5 16 5 8 87 19 8 3
7 22 100 100 100 100 86 94 100 99 100 100 100 100 100 100 100 100 100 100 100 100 100 100 100 97 4 29 32 66 18 5 5 5 5 5 47 7 86 100 74 5 5
98 100 100 100 85 87 100 100 100 100 99 100 100 94 94 99 100 100 100 100 100 100 100 100 41 8 5 5 24 78 5 10 52 5 5 5 5 86 98 100 85 5 5
100 100 100 99 100 100 100 100 78 100 100 100 99 100 100 100 100 100 100 100 57 6 5 5 5 5 5 6 45 77 64 45 100 31 17 5 40 77 94 100 81 5 5
100 100 100 94 87 96 96 82 98 100 97 99 100 93 65 87 52 34 1 0 5 5 6 11 5 5 5 49 92 70 26 8 41 5 91 37 36 77 100 100 99 89 66
100 99 96 89 83 72 83 91 99 100 100 82 98 98 32 5 0 0 0 2 5 18 95 78 10 41 69 24 100 93 97 100 72 48 83 89 98 54 100 100 100 100 98
100 92 73 6 5 51 100 100 100 100 100 100 98 35 2 0 0 0 0 5 94 97 26 46 98 14 16 88 96 100 86 92 86 96 92 99 81 92 100 100 100 100 82

GFSMW_prec_cloud_054.txt.gz
Cloud_Cover
100 100 100 98 15 100 100 100 100 100 100 100 100 100 100 100 100 100 100 100 100 100 71 56 14 5 0 0 0 0 0 4 0 0 0 0 0 0 0 0 0 2 1
100 100 100 100 100 100 100 100 100 100 100 100 100 100 99 90 90 82 100 50 84 47 37 4 0 0 0 1 5 5 5 0 0 0 0 0 0 0 5 5 5 5 5
100 100 100 100 100 100 77 100 100 100 100 100 100 100 100 100 83 68 52 16 23 4 5 0 0 0 4 5 5 4 0 0 0 0 0 0 0 5 5 6 12 5 5
19 38 100 89 29 8 9 59 71 70 59 26 10 6 13 7 5 5 1 0 4 5 0 0 5 4 0 5 5 5 3 0 3 4 3 0 0 2 8 32 7 5 5
52 100 100 100 100 96 51 98 97 59 52 6 7 10 8 5 5 0 0 0 0 2 5 3 5 5 7 78 67 99 4 6 5 1 2 2 5 5 5 6 8 5 5
99 26 16 34 81 63 6 12 70 41 50 5 2 3 37 5 5 1 0 3 5 5 25 74 67 9 20 64 89 94 99 6 5 5 5 5 5 5 5 6 41 87 6
100 100 56 11 50 31 4 5 29 21 0 17 1 5 5 5 5 5 5 27 19 10 100 97 6 56 63 66 99 76 16 38 5 5 5 5 5 5 5 5 5 60 5
100 100 34 4 5 8 26 10 0 0 0 2 5 2 5 14 39 81 100 100 100 100 100 100 100 100 100 59 5 5 5 12 5 5 5 5 12 67 87 67 36 27 5
13 5 3 5 16 1 5 5 0 0 0 5 9 8 88 84 74 100 100 100 100 100 100 100 100 100 100 93 81 34 26 71 23 47 21 87 76 99 91 90 98 100 96
0 3 1 2 0 0 0 0 0 0 1 5 35 91 100 99 100 100 92 100 100 100 100 100 100 100 70 100 77 94 75 55 68 43 19 34 61 100 85 96 99 100 100
0 0 0 0 0 0 0 0 0 0 14 60 100 100 100 98 95 100 100 100 100 100 100 100 100 52 45 94 92 89 56 37 48 55 35 62 98 95 98 98 90 100 100
0 0 0 0 0 0 0 0 0 8 46 54 6 72 64 100 93 96 100 100 100 100 100 92 42 18 89 99 92 90 47 65 66 82 97 100 100 100 100 100 100 66 6
0 0 0 0 0 3 3 4 8 54 99 91 72 52 44 38 100 77 100 100 99 72 76 34 97 82 82 94 86 77 93 100 100 100 100 100 100 100 100 100 43 5 0
0 0 0 1 2 12 28 31 100 55 96 95 100 100 100 100 94 46 100 97 31 71 52 89 80 61 92 100 100 100 100 100 100 100 100 100 100 100 92 5 5 1 4
0 0 4 5 5 10 47 70 69 84 88 100 85 100 93 47 25 96 100 83 94 76 100 82 100 98 98 100 100 100 100 100 100 100 100 100 80 7 5 5 1 3 5
0 2 6 5 5 1 5 5 6 99 100 95 9 31 93 95 98 100 96 100 100 92 100 100 94 83 100 100 100 100 100 100 100 99 26 5 5 4 3 5 5 29 5
5 6 5 5 6 16 25 15 5 5 38 76 98 80 100 92 99 75 100 100 100 98 100 99 100 100 100 100 100 100 100 76 8 5 26 7 6 5 5 5 68 72 5
5 1 3 5 4 5 5 5 5 26 95 100 98 90 93 96 97 100 99 100 99 99 100 96 100 100 100 100 90 45 5 5 5 85 78 74 43 5 5 17 98 99 10
5 5 5 20 13 5 21 36 31 99 100 72 77 98 100 100 100 100 100 100 100 100 93 100 100 87 8 5 5 5 5 5 15 58 100 100 55 5 17 80 100 100 45
5 16 8 5 13 86 100 100 100 100 91 81 98 99 100 100 100 100 100 100 100 97 100 51 0 0 2 5 5 5 5 44 32 14 81 44 5 5 5 64 100 100 63
5 18 89 100 100 100 100 100 99 96 98 98 100 99 100 100 100 100 100 97 100 96 3 0 3 5 5 5 5 5 70 95 49 40 5 20 5 5 5 78 100 98 97
94 100 100 100 100 100 100 96 92 90 100 98 100 100 99 100 100 100 100 100 66 0 0 0 3 5 5 5 5 5 73 100 90 13 5 93 28 5 5 92 100 100 100
100 100 100 100 100 100 92 81 99 100 100 96 85 98 100 100 100 60 81 25 0 0 0 4 5 5 5 5 5 5 8 95 100 31 15 99 88 70 5 74 99 100 94
100 100 100 100 100 100 100 100 91 5 34 99 98 100 100 52 32 36 3 0 0 0 5 5 5 5 5 5 5 5 79 54 50 55 99 99 90 99 54 68 90 99 100
100 100 100 100 99 84 92 61 6 31 96 98 98 83 18 19 13 5 1 3 0 5 5 5 29 7 5 5 5 24 55 77 100 99 95 100 100 96 35 58 88 43 100
100 100 100 88 15 33 9 5 5 36 87 99 50 65 37 5 3 5 5 5 5 5 58 96 67 10 9 5 5 5 5 36 85 100 86 99 100 99 100 100 98 72 100

GFSMW_prec_cloud_057.txt.gz
Cloud_Cover
100 100 100 100 100 100 100 100 100 100 100 100 100 100 100 100 100 100 100 100 100 100 100 100 100 90 33 96 92 12 0 0 0 0 0 0 0 0 0 0 0 0 0
100 100 100 100 100 99 100 100 100 100 100 100 100 100 100 100 100 100 100 82 99 100 91 94 87 42 56 42 0 0 0 2 5 5 5 1 2 5 4 0 0 5 5
100 100 79 100 100 100 100 100 100 100 100 100 100 100 100 99 99 88 81 99 96 56 16 47 26 4 0 0 5 4 5 35 70 83 89 19 6 1 0 5 5 6 62
100 100 94 100 74 32 27 96 100 98 21 30 42 98 23 23 77 90 63 49 61 6 2 0 4 5 5 5 5 2 5 10 80 84 100 58 5 0 2 5 5 92 66
99 99 99 7 57 35 88 96 84 23 56 99 100 100 68 23 70 93 8 4 0 0 5 5 5 7 10 5 3 5 34 31 59 21 2 0 5 5 5 10 5 5 7
46 74 98 100 45 26 10 18 8 5 18 77 100 100 97 7 66 96 5 5 5 5 39 85 5 81 94 94 12 16 49 7 28 65 5 5 5 5 5 32 5 5 5
42 89 75 28 58 66 61 70 43 27 60 100 100 50 5 34 85 70 5 5 47 73 60 89 100 100 100 100 100 96 89 98 74 5 11 67 63 56 64 15 5 7 5
26 18 6 26 32 41 100 76 100 98 100 100 24 3 4 84 94 6 94 94 35 86 100 100 100 95 88 100 98 100 100 82 50 45 40 24 87 92 42 83 72 12 74
98 20 3 5 22 87 100 78 100 100 99 71 5 22 0 5 5 25 99 94 98 88 100 100 100 100 100 99 99 86 96 82 84 61 42 30 52 78 99 78 100 100 100
41 6 5 2 23 60 27 44 23 5 2 0 0 0 5 5 7 40 100 88 90 100 100 80 100 100 100 100 83 72 38 26 81 87 89 98 71 86 100 100 100 100 100
2 4 5 3 0 0 0 0 0 0 0 1 4 14 82 64 5 28 54 41 100 100 100 100 100 99 71 76 97 93 98 80 87 60 84 100 100 98 96 93 99 98 86
2 0 0 0 0 0 0 0 0 5 4 5 39 74 93 94 91 100 94 100 63 100 100 44 100 84 97 96 58 92 59 13 75 100 100 99 99 100 100 74 28 9 12
0 0 0 0 0 2 3 3 0 2 5 19 96 52 100 85 100 93 100 27 74 95 99 100 89 99 78 91 58 11 78 93 91 97 100 98 84 95 80 58 5 5 5
0 0 0 5 3 5 5 5 22 76 93 85 45 100 100 98 97 100 60 99 100 100 81 99 94 100 100 84 93 100 82 75 89 44 7 5 49 5 44 60 5 5 2
0 0 0 4 5 5 5 5 10 52 85 63 95 72 99 100 100 100 100 100 76 100 100 94 100 100 88 31 62 42 72 10 1 2 5 5 5 5 5 5 4 4 5
0 0 0 4 0 4 5 5 62 57 49 87 93 100 100 100 100 100 100 100 100 100 100 100 100 100 100 100 100 100 10 5 5 5 5 5 5 6 5 5 5 5 5
0 0 0 1 5 33 97 96 98 85 94 67 69 100 100 100 100 100 100 100 100 100 100 98 83 96 100 100 98 7 5 5 5 5 5 30 90 92 38 5 5 5 5
2 4 5 21 51 90 90 73 49 16 74 85 100 97 100 100 100 99 100 100 100 100 94 52 71 86 95 6 5 5 5 5 5 5 5 79 95 92 96 20 5 5 5
5 5 5 5 5 5 5 5 40 100 100 100 100 100 100 100 100 100 100 100 98 92 75 58 67 26 5 0 0 5 5 5 5 5 5 65 99 100 94 5 5 5 60
5 5 7 10 5 6 5 28 94 100 100 100 100 100 100 98 92 100 100 72 91 15 6 56 15 5 0 0 5 5 19 16 5 5 5 14 14 5 5 5 5 5 61
5 8 46 56 47 10 91 74 74 100 100 100 99 98 96 88 90 79 89 51 9 26 32 6 5 0 0 0 5 6 37 15 72 97 34 7 19 59 5 5 5 5 8
28 13 5 5 50 100 100 96 100 100 100 100 86 92 85 73 54 93 77 23 8 12 9 1 0 0 0 3 5 5 96 83 100 100 64 7 99 95 82 74 6 5 5
5 5 26 97 100 100 100 100 100 100 100 91 90 24 29 66 100 41 5 5 5 5 0 0 0 0 0 5 5 5 15 99 86 100 100 63 100 100 96 93 71 5 12
82 100 100 100 100 100 100 100 100 98 73 5 5 14 5 24 5 5 5 5 8 5 5 5 5 5 5 5 5 5 7 5 68 99 100 100 98 99 100 100 88 100 64
100 100 100 100 100 100 100 100 58 7 8 23 50 12 5 5 5 5 41 17 5 5 5 5 6 66 7 5 49 100 90 31 85 97 98 97 100 100 100 100 83 100 100
100 100 100 100 100 100 90 12 15 6 23 50 58 15 7 14 5 13 16 5 3 1 2 5 5 5 5 5 82 98 100 100 100 100 94 84 83 100 100 100 100 93 100

GFSMW_prec_cloud_060.txt.gz
Cloud_Cover
100 88 99 100 85 68 100 100 100 100 100 91 79 51 20 100 100 100 100 100 100 100 100 98 100 100 100 100 86 59 75 16 0 0 0 0 0 1 5 5 5 5 0
100 100 100 100 100 100 100 100 99 100 100 98 100 100 100 100 100 100 100 100 100 100 100 96 81 75 100 80 8 8 1 0 1 4 5 2 2 0 1 0 0 0 5
100 100 100 100 100 100 100 100 74 17 38 100 100 100 100 100 100 100 100 100 100 100 45 59 100 100 33 4 5 1 0 0 2 4 3 3 5 2 2 3 1 5 5
100 100 100 100 100 98 99 99 91 68 83 100 99 100 100 100 94 100 87 78 70 33 97 100 63 5 3 4 38 94 71 51 54 81 99 97 6 5 2 1 0 1 4
29 26 66 93 76 67 100 100 100 89 97 95 100 97 100 100 77 91 90 100 98 76 9 3 6 36 9 5 95 100 74 83 96 98 97 100 99 72 5 13 0 2 3
9 5 14 36 44 78 74 100 100 90 100 100 100 100 100 100 42 86 47 99 62 1 1 5 33 5 20 100 100 100 86 100 94 42 60 77 5 5 7 40 8 5 5
46 30 33 54 97 66 50 44 45 100 100 100 100 100 100 100 94 17 14 66 90 5 32 24 85 33 50 100 100 86 100 83 51 57 40 41 34 5 7 8 8 18 5
95 57 53 24 36 98 76 9 95 100 100 100 100 100 100 99 16 39 95 98 87 50 14 76 43 100 100 100 100 100 98 95 23 5 5 7 11 68 53 5 5 65 13
100 100 100 99 58 35 32 46 96 100 100 100 100 100 100 77 96 7 5 60 73 82 66 73 100 100 98 100 100 100 100 96 44 5 5 6 14 46 5 3 5 67 99
73 68 97 45 5 5 24 79 71 99 100 100 100 100 97 22 12 5 100 100 96 96 71 100 85 100 100 100 96 10 93 45 5 14 58 77 34 5 5 5 5 8 100
96 45 51 37 5 5 7 61 79 71 41 22 25 28 0 58 49 76 100 93 100 94 100 100 100 100 100 98 5 5 18 7 30 71 42 56 32 50 76 5 5 5 31
11 5 1 5 31 35 51 59 74 30 4 0 3 5 5 49 85 94 92 100 100 100 100 100 62 98 100 100 82 24 96 92 100 100 72 83 99 84 6 5 5 5 5
3 2 1 4 2 0 15 19 28 48 89 46 98 83 54 5 73 100 68 100 100 100 100 100 100 100 69 45 13 96 100 100 99 67 92 87 17 5 5 44 5 45 82
0 2 0 0 0 1 0 46 15 86 54 80 69 74 82 21 100 100 100 100 100 100 100 64 94 100 66 22 76 92 100 96 8 24 5 5 5 5 5 5 5 41 5
2 3 0 0 0 4 5 36 66 51 7 44 99 93 93 100 100 100 91 100 100 100 45 100 100 100 97 94 95 100 13 5 4 0 2 3 5 5 5 5 5 18 5
4 5 3 2 0 4 5 5 5 5 5 5 11 100 100 100 100 100 100 100 100 100 100 100 100 100 100 100 20 5 5 5 5 5 5 1 5 5 17 76 88 88 5
5 0 5 0 0 0 0 2 5 5 12 93 100 100 100 100 100 100 100 100 100 100 98 100 71 100 100 15 5 5 14 5 5 5 5 5 5 5 88 100 100 65 5
5 5 5 4 2 3 5 14 67 97 96 100 100 100 100 100 100 99 100 100 100 94 89 89 100 90 24 5 5 40 5 5 5 5 5 5 5 5 28 99 85 79 64
5 5 5 5 5 5 11 60 98 100 100 100 100 100 100 88 100 100 100 100 100 96 99 99 56 10 67 8 28 5 5 5 5 5 5 5 5 5 30 98 82 34 5
19 15 36 36 44 62 58 42 100 100 100 100 100 100 100 100 100 100 100 98 59 97 72 85 39 50 38 17 32 5 5 6 5 5 5 5 5 5 14 84 5 5 7
5 5 5 5 5 41 52 77 100 98 100 100 100 100 100 93 99 69 39 50 72 79 90 31 60 34 5 49 17 5 4 5 7 68 25 43 5 5 13 72 63 14 19
5 5 5 5 5 23 34 20 71 99 100 100 96 89 80 66 29 7 30 34 52 92 98 64 80 5 79 79 47 4 4 5 76 94 11 100 94 91 36 70 27 100 83
5 5 5 6 36 13 5 42 99 100 100 100 99 77 38 5 5 5 6 18 80 75 65 30 5 5 35 45 5 5 5 22 90 54 62 89 100 100 75 100 72 100 80
39 35 6 24 57 69 91 100 100 100 97 54 25 6 5 5 5 5 5 10 5 9 5 7 11 22 57 12 5 12 8 5 83 100 99 100 100 100 100 100 100 100 99
44 48 61 79 82 100 100 100 87 28 5 5 5 5 5 5 5 5 5 5 5 5 15 81 72 95 93 23 5 36 97 100 45 97 100 100 100 100 100 100 98 100 100
100 100 100 100 100 99 100 100 26 5 5 5 5 5 5 5 5 12 12 72 74 99 100 100 86 9 27 18 18 5 5 69 97 100 100 100 100 100 99 81 99 100 100

GFSMW_prec_cloud_063.txt.gz
Cloud_Cover
100 100 100 100 100 5 7 99 79 100 30 32 100 100 100 100 100 100 100 100 100 100 100 100 100 100 100 100 100 100 64 20 18 27 5 0 0 0 0 0 0 2 0
29 41 100 100 95 88 97 91 88 97 100 100 100 97 66 88 98 100 100 100 84 98 100 100 88 100 100 100 100 89 46 7 5 0 2 4 4 4 5 5 0 5 5
100 100 100 100 100 100 100 100 100 100 100 72 7 5 12 15 44 63 100 100 100 100 100 100 100 100 95 48 27 14 5 5 8 36 29 5 19 21 33 5 5 4 9
100 100 100 100 100 100 100 100 100 100 76 86 52 79 94 50 61 74 96 100 100 100 95 50 79 82 10 5 28 5 36 89 69 97 100 88 25 65 5 3 4 5 5
99 100 100 100 100 98 75 79 98 100 79 75 89 96 9 55 91 94 100 100 100 90 52 86 35 5 8 8 71 92 82 94 100 100 70 75 63 5 0 5 5 4 5
85 91 94 67 98 89 93 99 52 10 26 26 17 72 64 100 96 100 100 100 100 36 17 55 8 5 70 90 80 82 48 24 97 100 76 23 29 5 5 5 5 5 4
7 33 94 96 57 59 88 77 73 98 93 100 100 100 100 100 100 100 100 100 100 88 80 96 94 76 34 73 97 100 100 100 87 55 9 5 5 5 5 5 4 5 3
6 5 5 55 5 28 92 100 94 75 71 71 100 100 100 100 100 100 100 100 100 100 100 26 15 57 65 94 100 100 100 100 20 5 5 5 16 5 6 5 5 3 4
40 7 24 36 55 46 49 85 35 22 44 97 98 100 100 100 100 100 100 100 99 88 19 17 99 99 100 99 99 100 100 49 70 90 91 27 5 53 89 74 24 5 5
100 89 58 7 10 30 41 5 41 83 92 98 100 98 100 100 100 100 100 72 87 92 89 94 100 100 100 100 100 100 99 83 75 35 25 45 14 28 28 5 5 8 71
100 100 99 19 5 14 19 43 16 10 28 92 100 100 100 100 100 100 100 90 98 100 100 100 100 100 100 100 100 100 97 67 23 60 9 31 31 16 5 5 8 58 86
24 6 5 5 6 5 5 9 90 62 65 76 98 100 100 100 100 100 100 100 100 100 100 100 100 100 100 100 96 83 99 100 99 49 56 48 5 5 5 5 6 59 71
3 1 0 1 5 15 28 73 100 100 100 100 100 100 100 100 100 100 100 100 100 100 100 100 100 100 100 100 99 100 97 69 60 41 53 5 5 5 5 6 5 55 41
0 0 2 4 5 23 46 48 77 100 100 100 100 100 100 100 100 100 100 100 100 100 100 100 100 100 100 100 100 76 85 92 92 40 5 5 5 5 5 5 5 6 21
2 2 0 4 56 5 11 20 48 60 100 100 100 100 100 100 100 100 100 100 100 100 100 100 100 100 100 97 99 88 95 46 38 5 5 5 5 5 24 5 5 5 5
5 5 5 5 5 5 5 5 43 53 30 51 99 100 100 100 100 100 100 100 100 100 100 100 100 100 89 99 76 8 46 6 6 36 42 5 20 64 21 5 5 38 88
0 3 0 1 9 27 24 55 56 51 39 39 46 69 97 100 100 100 100 100 100 100 100 99 66 80 100 92 21 44 19 17 53 61 5 24 82 63 5 5 5 7 90
2 3 4 4 4 5 5 5 5 8 37 84 86 98 100 100 100 100 100 100 100 98 33 92 99 69 74 75 66 54 14 14 31 5 42 60 60 32 5 5 5 11 88
5 5 3 5 5 5 11 13 67 99 100 100 100 100 100 98 88 100 100 69 87 100 100 76 33 45 88 89 94 87 23 21 5 56 85 84 21 5 5 10 23 58 93
24 5 5 5 5 6 43 66 85 84 100 99 100 89 77 100 100 98 98 92 47 5 5 16 29 68 75 95 77 20 5 10 48 72 56 12 67 95 94 97 37 100 58
56 33 49 6 6 18 83 79 83 100 100 71 86 99 94 80 100 31 6 5 11 31 7 6 53 55 38 42 53 57 7 16 39 23 8 5 5 86 100 100 87 88 92
100 99 97 95 97 99 79 77 80 53 69 99 99 97 100 72 6 14 5 11 45 5 17 80 93 73 45 73 46 5 5 29 32 49 60 96 80 5 99 96 60 100 98
69 79 100 100 100 90 19 5 20 83 92 95 97 98 11 5 15 5 50 58 7 57 72 38 70 88 44 5 5 15 27 88 69 7 14 18 83 100 100 100 97 100 100
59 33 7 20 35 68 87 84 96 97 92 96 28 5 5 5 33 58 62 27 26 55 20 36 50 68 64 58 78 29 5 10 66 55 9 99 100 100 100 100 100 100 100
20 73 88 96 94 93 61 84 87 84 48 27 10 5 5 18 65 41 38 38 48 28 64 94 83 77 67 89 99 98 89 99 39 89 81 68 100 100 100 100 100 100 100
51 61 92 92 100 97 96 100 100 100 100 100 97 69 38 71 74 77 77 79 50 47 21 5 73 76 74 67 80 100 85 76 74 83 100 86 89 87 100 100 100 100 100

GFSMW_prec_cloud_069.txt.gz
Cloud_Cover
100 100 100 100 100 100 100 100 100 100 100 100 100 100 100 100 100 100 100 100 100 100 100 100 100 100 100 100 100 100 97 84 64 72 11 21 6 4 4 5 5 0 0
100 100 100 100 100 95 90 59 100 100 100 100 100 100 100 100 100 100 100 100 100 100 100 100 100 99 86 39 46 40 61 20 16 5 5 46 38 15 10 4 4 5 0
100 100 98 100 100 96 100 99 94 100 100 100 100 100 100 100 82 97 100 100 100 100 80 29 38 36 62 53 46 32 5 5 5 5 5 5 5 5 5 5 0 0 0
100 81 98 91 100 23 27 86 100 91 54 53 36 49 90 96 100 100 100 100 100 74 97 100 83 7 93 81 100 95 56 5 24 49 21 5 5 54 5 5 4 5 5
100 100 100 100 100 47 95 15 100 89 87 92 35 85 100 100 100 100 100 100 94 59 95 91 93 42 100 100 100 100 17 100 100 100 94 100 57 44 25 66 6 5 5
100 100 99 56 64 24 92 100 94 80 90 44 76 100 98 85 79 85 90 100 100 100 100 96 100 100 100 100 100 100 100 98 100 100 91 100 72 96 93 34 5 5 5
73 99 43 53 56 74 44 38 44 4 35 64 20 16 68 41 100 94 100 100 100 100 100 100 100 100 100 100 100 100 100 100 100 100 98 100 100 100 100 100 99 5 5
100 100 57 100 93 21 5 5 5 81 96 100 100 96 79 51 68 100 100 88 100 100 100 100 100 100 100 100 100 100 100 100 100 98 100 100 100 100 100 62 92 5 4
5 30 98 27 5 5 27 39 57 58 61 98 74 54 47 71 89 97 100 100 100 100 100 100 100 100 100 100 100 100 100 100 100 100 100 100 100 100 54 95 76 26 5
5 10 5 5 5 5 5 27 9 54 79 79 96 75 96 100 100 80 98 100 100 100 100 100 100 100 100 100 100 100 100 100 100 100 100 99 100 80 96 96 45 5 5
5 28 11 25 5 44 9 36 25 24 49 80 49 91 100 100 100 80 100 100 100 100 100 100 100 100 100 100 100 100 100 100 100 100 96 100 100 98 99 13 12 38 32
0 0 4 5 5 5 5 5 20 14 29 41 98 74 100 100 100 100 100 100 100 100 100 100 100 100 100 100 100 100 100 100 100 100 100 100 92 97 77 71 100 48 56
4 5 3 5 34 20 2 2 35 60 71 56 84 74 100 100 100 100 100 100 100 100 100 100 100 100 100 100 100 100 100 96 82 100 100 99 100 100 88 78 25 33 10
6 5 3 3 0 0 0 0 4 11 68 70 81 81 100 100 100 100 100 100 100 100 100 100 100 100 100 100 100 100 100 100 100 100 100 100 100 100 90 84 12 16 51
7 98 100 88 84 2 18 68 68 61 46 62 90 100 100 100 100 100 100 100 100 100 100 100 100 100 100 100 100 100 100 100 99 100 100 83 81 92 84 76 37 5 10
100 100 100 100 100 48 99 100 100 100 100 100 100 100 100 100 100 100 100 100 100 100 100 100 100 100 100 100 100 100 73 78 100 89 26 26 80 14 54 74 39 5 11
29 91 100 94 39 88 100 100 100 100 100 100 100 100 100 100 100 100 100 100 100 100 100 100 96 64 56 64 43 96 100 100 97 64 100 88 26 27 31 85 98 84 99
45 1 6 59 54 100 100 100 100 100 100 100 100 100 100 98 100 100 100 100 100 100 99 89 68 70 64 99 100 100 71 72 80 48 72 32 70 11 26 83 33 27 70
5 5 0 6 25 37 42 54 68 85 89 100 100 95 87 81 100 99 100 100 78 91 78 81 94 100 100 100 69 65 79 63 99 31 6 6 5 5 6 10 10 5 5
39 7 5 5 1 3 6 22 32 97 94 94 78 74 98 100 79 42 78 56 67 76 92 100 100 100 94 99 100 97 38 12 5 5 27 9 5 5 5 5 5 8 5
100 88 35 6 5 5 5 88 100 91 91 90 73 81 100 83 86 95 100 100 100 100 100 100 100 100 88 29 26 56 8 5 18 5 5 5 5 5 5 5 36 28 5
100 100 99 87 84 25 5 82 36 51 52 82 100 100 100 100 100 100 100 100 100 100 100 87 56 20 15 5 5 18 27 11 6 8 5 5 5 5 5 5 5 5 7
77 100 100 100 71 95 51 99 47 66 100 100 100 100 100 100 100 100 100 100 76 100 76 58 16 7 49 52 38 77 51 57 7 5 5 5 5 5 11 5 5 7 58
100 100 100 73 68 13 48 100 36 17 74 72 90 100 98 86 9 5 5 72 96 70 41 60 49 52 32 54 88 79 36 5 5 5 5 5 23 67 76 52 16 48 39
89 55 6 9 64 100 100 90 69 57 67 93 99 78 71 30 57 43 32 35 95 46 40 68 29 68 40 33 20 26 7 5 5 5 12 43 14 77 96 84 31 93 100
94 56 85 100 100 100 95 72 94 82 93 100 95 83 75 60 61 77 100 94 49 70 100 93 80 19 34 18 11 45 70 38 63 58 81 82 100 100 100 99 89 45 80

GFSMW_prec_cloud_072.txt.gz
Cloud_Cover
42 5 52 76 83 85 100 100 100 100 100 100 100 100 100 100 100 100 100 100 100 100 100 66 90 100 100 100 100 100 100 100 94 99 95 71 94 38 17 5 5 5 3
100 97 97 83 100 89 87 94 100 100 100 97 100 100 100 99 100 100 100 100 100 100 100 100 100 100 100 100 100 95 97 86 38 63 79 71 64 70 41 54 33 5 4
99 22 58 99 100 79 98 100 100 100 97 72 5 65 100 100 100 100 100 100 100 100 100 100 96 45 96 82 40 12 72 87 84 63 7 6 13 49 29 6 18 35 13
100 92 100 38 100 100 100 22 32 33 77 100 98 10 100 100 100 100 100 100 100 100 91 96 89 92 95 100 64 93 97 80 44 100 100 100 100 100 100 87 6 5 6
100 100 100 100 100 100 100 100 92 70 87 84 100 77 70 94 87 61 100 95 72 100 100 81 98 96 100 100 100 100 100 100 36 99 100 100 100 100 100 100 100 48 20
100 100 100 100 100 100 100 100 22 5 99 100 100 100 100 100 100 100 51 100 97 99 100 100 100 100 95 93 97 100 100 100 98 100 100 100 100 100 100 100 96 78 99
100 100 100 100 100 100 100 100 100 97 100 100 100 100 100 100 95 100 99 100 100 89 51 72 90 100 100 100 100 100 100 100 100 100 100 96 100 100 100 94 74 57 100
15 100 78 59 52 57 93 100 100 14 9 86 100 57 32 5 20 91 39 81 100 99 100 87 100 100 100 100 100 100 100 100 100 100 98 100 100 100 100 93 97 53 5
9 29 64 94 19 7 5 5 34 5 5 7 72 5 5 5 5 5 5 53 100 85 100 100 100 100 100 100 100 100 100 100 100 100 100 100 100 100 100 96 88 43 5
4 1 11 9 59 83 57 5 5 5 5 5 5 34 30 34 14 6 44 100 91 100 100 100 100 100 100 100 100 100 100 100 100 100 100 100 100 100 100 100 100 99 68
1 3 3 72 93 96 96 83 5 39 51 5 5 52 98 100 100 96 25 50 41 90 100 100 100 100 100 100 100 100 100 100 100 100 100 100 100 100 100 99 52 79 65
0 0 5 5 5 26 95 83 86 59 5 33 100 46 17 79 100 100 100 91 94 100 100 100 100 100 100 100 100 100 100 100 100 100 100 100 100 100 100 100 100 100 100
0 0 0 4 3 2 11 41 100 100 96 98 99 57 74 97 66 100 100 100 100 100 100 100 100 100 100 100 100 100 100 100 100 100 100 100 100 100 100 100 100 60 5
6 0 0 0 0 1 3 2 2 20 54 25 56 91 100 100 100 100 100 100 100 100 100 100 100 100 100 100 100 100 100 100 100 100 100 100 100 100 100 77 19 33 13
100 1 4 5 64 21 90 68 38 5 8 82 100 100 100 100 100 100 100 100 100 100 100 100 100 99 100 100 100 100 100 99 100 100 100 97 100 100 68 42 75 65 10
5 5 0 0 16 96 100 99 48 75 79 100 100 100 100 100 100 100 100 100 100 100 100 100 100 100 100 96 65 73 59 65 62 100 100 100 76 23 6 5 87 99 95
5 3 0 0 2 5 0 15 74 100 100 100 100 100 100 100 100 100 100 100 86 94 99 61 87 62 27 16 40 93 100 100 100 100 100 99 77 36 21 5 5 5 17
5 5 12 1 0 0 3 90 94 100 100 100 100 100 100 100 100 100 100 100 99 87 91 91 79 29 91 99 100 100 100 100 100 83 58 63 73 17 14 30 14 10 23
5 5 7 5 4 5 66 100 100 100 100 100 100 100 100 100 100 100 100 89 98 99 100 100 100 93 88 100 100 100 99 85 91 13 10 81 94 66 8 5 5 9 5
5 5 5 14 9 64 59 61 98 100 100 100 100 97 65 70 51 77 100 100 100 100 100 88 99 100 92 95 92 99 97 44 64 26 44 91 29 89 45 5 5 5 5
5 5 10 34 68 77 46 86 93 84 99 99 48 30 40 50 69 99 90 53 66 58 94 98 96 12 5 12 74 97 70 40 10 35 38 95 57 20 15 8 17 41 12
6 62 44 52 48 69 29 78 88 84 51 82 27 100 100 67 90 95 60 80 84 19 24 8 26 5 5 5 84 91 6 35 88 100 55 17 48 61 51 7 40 77 95
6 32 100 100 94 53 20 46 95 32 70 96 100 100 89 49 86 61 64 86 100 78 42 45 58 53 47 6 95 76 94 100 100 96 100 100 69 23 56 9 6 70 94
16 50 6 14 25 58 92 100 74 58 100 100 99 66 100 99 100 100 82 99 86 66 79 80 8 8 98 100 85 72 97 42 90 81 41 69 65 56 5 5 5 6 69
30 6 78 59 97 81 24 50 98 100 99 55 77 67 27 98 66 98 98 93 100 100 100 66 56 100 100 100 90 100 100 95 90 100 96 75 25 5 5 5 5 10 70
9 72 97 85 83 90 100 100 99 58 59 46 100 100 100 97 100 100 99 89 99 100 100 100 100 100 99 100 100 100 100 100 100 100 67 50 5 5 5 5 17 77 94

GFSMW_prec_cloud_075.txt.gz
Cloud_Cover
90 64 51 84 64 89 100 100 100 100 100 100 100 100 100 100 100 100 100 100 97 100 100 100 100 98 92 100 100 100 100 100 100 100 100 100 100 88 36 15 5 7 12
100 100 32 25 69 67 100 100 100 100 100 100 100 100 82 77 100 100 100 100 100 100 100 100 100 90 100 100 100 100 100 100 100 100 100 94 96 100 100 100 100 98 98
100 100 97 97 33 19 100 100 100 100 100 100 100 100 100 96 99 100 100 100 100 100 100 100 100 100 100 100 100 100 97 99 98 97 96 100 75 26 88 100 100 100 93
100 100 67 82 2 4 100 100 100 100 100 100 100 100 100 100 96 100 100 100 100 100 100 100 100 100 100 100 100 86 100 99 89 100 94 34 61 49 38 57 39 14 99
9 92 100 100 100 99 97 56 96 100 100 100 100 87 30 55 96 98 100 100 90 100 100 59 99 100 100 100 100 100 100 100 100 100 100 100 84 90 10 99 100 88 92
77 5 5 57 100 97 73 90 48 61 92 30 12 1 5 88 52 81 5 43 64 88 100 97 82 96 92 97 67 100 95 87 100 100 100 100 100 100 99 82 100 100 94
83 75 3 84 75 21 98 100 100 92 61 7 26 5 5 4 5 5 90 9 33 60 100 100 100 94 100 100 91 100 100 100 100 100 100 100 100 100 100 100 100 87 66
100 100 60 92 94 9 3 0 48 98 100 51 57 97 21 8 8 75 5 5 5 71 100 100 100 100 100 100 100 100 100 100 100 100 100 100 100 100 100 100 100 100 57
5 4 58 49 5 87 100 100 100 100 100 100 97 88 93 14 5 5 15 52 62 94 100 100 100 100 100 100 100 100 100 100 100 100 100 100 100 100 100 100 100 100 14
0 2 2 4 31 5 5 37 33 14 7 37 30 19 65 14 5 28 43 51 99 100 100 100 100 100 100 100 100 100 100 100 100 100 100 100 100 100 100 100 100 100 100
0 0 0 1 4 5 20 7 63 15 76 100 100 100 33 34 95 100 100 100 100 100 100 100 100 98 100 100 100 100 100 100 100 100 100 100 100 100 100 100 100 100 99
0 0 0 0 0 45 100 100 81 100 100 100 100 100 5 75 100 100 100 100 100 100 100 100 87 100 100 100 100 96 100 100 100 100 100 100 100 100 100 100 100 52 99
0 7 0 0 0 0 2 90 99 99 100 100 100 100 100 97 94 100 100 100 100 100 100 100 100 100 100 100 100 100 100 100 100 100 100 100 100 100 100 90 93 84 40
40 27 57 3 0 0 0 0 10 13 40 79 94 99 100 100 100 100 100 100 85 100 100 100 98 98 100 100 100 78 88 100 100 100 99 91 37 44 91 88 44 30 30
17 4 5 4 0 0 3 10 61 90 78 100 100 100 100 100 100 100 100 100 100 100 100 100 100 100 100 100 100 100 100 100 100 85 60 100 100 98 86 100 94 71 67
0 0 1 5 5 87 16 42 74 85 100 100 100 100 100 100 100 100 100 100 100 100 100 100 100 100 100 100 74 100 95 7 44 50 35 79 90 47 31 16 10 5 5
4 0 0 20 5 1 31 100 99 70 88 100 100 100 100 100 100 100 100 100 100 100 100 100 100 100 92 55 55 99 99 40 38 17 38 16 7 13 5 62 30 30 45
2 0 0 0 5 16 42 51 57 75 97 100 100 100 100 100 100 100 100 100 100 100 100 38 34 95 98 96 48 20 10 38 21 55 6 5 5 5 5 7 61 88 74
31 1 3 10 5 5 5 10 47 34 89 100 100 100 100 100 100 100 100 100 85 52 36 25 63 82 99 15 9 73 28 16 38 11 5 8 5 5 8 5 12 7 19
33 5 5 5 5 5 5 40 96 80 100 100 100 100 100 100 100 100 98 100 99 48 70 5 13 9 100 89 22 49 5 5 5 5 5 92 44 99 24 21 5 8 7
100 96 7 5 25 12 10 56 93 100 100 100 100 100 100 75 46 96 100 73 41 35 31 21 100 100 100 100 92 53 16 16 24 69 100 92 94 100 48 64 61 80 52
100 100 36 5 5 86 82 57 67 100 100 100 99 100 100 99 68 76 74 10 38 94 100 100 100 100 100 68 92 100 93 100 90 100 97 97 92 100 100 100 100 100 59
100 97 100 100 50 87 93 96 42 61 100 100 100 95 100 100 84 92 8 6 48 100 100 100 63 32 19 74 95 93 100 100 100 100 100 100 100 100 100 100 100 96 100
14 32 10 34 82 90 66 38 5 35 100 100 100 100 99 100 97 57 91 65 87 94 100 100 100 94 85 88 72 78 84 94 96 100 100 100 100 100 100 100 100 100 99
30 7 5 77 31 68 99 100 87 96 100 100 100 100 100 100 100 100 100 100 100 100 100 100 100 100 100 100 100 100 99 98 100 100 100 100 100 100 100 100 100 72 6
70 63 70 40 87 100 100 100 100 100 100 100 100 100 100 100 100 100 100 100 100 100 100 100 100 100 100 100 100 100 100 100 100 100 100 100 100 100 76 25 82 5 5

GFSMW_prec_cloud_078.txt.gz
Cloud_Cover
46 43 99 100 100 100 100 100 100 100 100 100 100 100 100 100 100 100 100 100 100 100 100 97 62 83 98 100 100 100 100 100 90 100 83 100 100 100 100 100 100 85 98
76 80 64 100 100 100 92 100 100 100 100 100 98 100 100 100 100 100 100 100 100 100 100 100 100 100 100 100 66 35 83 38 41 100 100 100 100 100 89 100 75 59 58
47 100 99 100 100 100 90 100 100 100 100 100 100 70 84 100 100 99 100 100 100 100 100 94 52 98 96 43 51 71 6 62 100 97 100 100 99 100 100 100 82 23 46
85 51 86 73 89 79 66 91 100 100 100 100 100 99 94 58 62 100 100 100 100 100 98 55 61 100 97 100 100 74 62 98 100 100 100 100 100 99 100 100 100 95 64
7 100 38 5 100 100 75 95 47 100 100 100 100 100 100 100 100 82 72 41 38 99 100 98 96 99 96 64 88 45 31 84 94 100 97 100 100 100 100 100 100 97 100
3 6 5 27 60 44 100 100 57 77 70 96 100 100 100 100 100 100 100 100 87 100 100 95 97 100 87 66 29 46 100 100 99 89 100 100 100 100 100 100 100 100 100
5 5 5 5 6 33 87 99 100 100 100 100 100 100 100 100 100 100 89 67 98 100 100 40 99 61 5 30 64 79 77 96 100 100 100 100 100 100 100 100 100 100 100
98 50 35 93 3 43 7 24 24 60 94 100 100 100 100 100 100 64 37 15 16 30 18 29 17 100 100 100 100 100 100 100 100 100 100 100 100 100 100 100 100 100 100
0 4 26 6 90 39 6 4 66 6 1 2 5 5 2 19 5 5 42 5 13 73 96 41 98 100 100 100 100 100 100 100 100 100 55 100 100 100 100 100 100 100 100
0 0 0 0 0 11 97 100 59 95 100 93 72 85 94 43 23 84 99 75 18 98 100 100 100 100 100 100 78 80 100 100 81 100 91 82 97 100 100 100 100 100 100
5 4 0 0 0 0 8 74 100 58 100 100 100 100 100 40 57 100 100 100 100 100 100 100 100 100 100 100 78 95 90 64 82 86 100 100 100 100 100 100 100 100 94
4 5 2 0 0 0 5 43 53 100 99 53 100 100 90 88 100 100 100 100 100 100 100 100 100 100 100 100 100 100 100 100 100 100 100 100 100 100 100 100 100 90 27
1 0 5 0 0 0 0 0 1 69 100 100 42 74 92 94 75 100 100 100 100 100 100 100 100 100 100 100 100 100 100 100 100 100 100 100 100 100 100 100 96 86 95
11 0 5 2 0 0 0 0 0 0 0 31 70 98 100 92 93 100 100 100 100 100 100 100 100 100 100 100 100 100 100 100 100 100 99 100 100 100 100 85 53 29 11
3 5 2 1 4 6 12 27 51 58 27 53 97 100 100 100 100 100 100 100 100 100 100 100 100 100 100 100 100 100 96 100 100 100 100 100 98 90 47 9 5 5 13
61 5 32 20 0 5 65 100 100 100 98 100 100 100 100 100 100 100 100 100 100 100 100 100 100 100 100 100 100 100 100 100 100 100 100 64 6 55 39 34 42 22 5
8 5 61 68 16 22 93 100 100 100 100 100 100 100 100 100 100 100 100 100 100 100 100 100 100 100 100 100 100 98 87 99 79 13 29 66 26 7 7 5 5 5 5
8 5 5 100 100 97 100 100 100 100 100 100 100 100 100 100 100 100 100 100 100 100 100 100 100 100 100 85 100 88 100 25 5 76 100 99 43 5 5 8 15 66 100
77 16 5 39 79 100 100 100 100 100 100 100 100 100 100 100 100 100 100 100 100 100 100 100 100 73 48 42 55 48 5 75 100 100 84 39 43 33 11 11 14 53 82
100 83 74 61 93 46 36 72 100 100 100 100 100 100 100 100 100 100 100 100 100 100 100 30 55 44 57 66 6 28 60 68 42 48 69 79 60 69 23 5 16 28 19
100 29 7 33 100 57 23 54 100 100 100 100 100 100 100 100 100 100 100 100 100 80 62 60 73 53 53 55 48 66 74 73 98 99 84 41 19 5 52 87 5 7 97
100 42 90 100 100 100 93 15 60 82 100 100 100 100 100 100 100 100 100 100 82 47 100 100 95 92 100 100 99 99 91 100 100 100 100 98 78 66 65 62 50 100 100
100 100 100 98 100 100 100 92 68 70 100 100 100 100 100 100 100 100 100 100 100 100 100 100 100 97 100 100 100 100 100 100 100 100 100 100 100 100 100 100 100 100 100
100 100 100 100 100 96 100 96 46 87 89 95 100 100 100 100 100 100 100 100 100 100 100 98 100 100 100 100 100 100 100 100 100 100 100 100 100 100 100 100 100 100 100
99 100 100 100 82 58 100 100 100 100 100 100 100 100 100 100 100 100 100 100 100 100 100 100 100 100 100 92 100 99 96 91 100 100 100 100 100 100 100 100 100 100 100
91 100 100 100 90 43 75 99 100 100 100 100 100 100 100 100 100 100 100 100 100 100 100 100 100 100 84 90 98 98 100 100 100 100 100 100 100 100 100 100 100 100 100

GFSMW_prec_cloud_084.txt.gz
Cloud_Cover
63 100 100 100 100 100 100 100 100 100 100 100 100 100 100 100 100 100 100 100 100 100 100 100 100 100 100 100 100 100 100 100 100 100 100 100 100 95 100 100 100 72 100
91 100 100 100 100 100 100 100 100 100 100 100 100 100 100 100 100 100 100 100 100 100 100 100 100 100 100 100 100 100 100 100 100 100 100 100 100 93 100 94 100 97 100
90 100 100 100 100 100 100 100 100 100 100 100 100 100 100 100 100 100 100 100 100 100 100 100 100 100 98 100 100 100 100 100 100 100 100 99 100 86 96 65 41 93 100
0 46 78 100 99 100 100 100 100 100 100 100 100 100 100 100 100 100 100 100 100 100 100 100 100 100 100 100 100 100 100 100 100 100 100 100 82 100 54 91 79 11 100
0 99 6 62 100 100 100 100 100 84 100 100 100 100 100 100 100 100 100 100 100 100 100 100 100 100 100 100 100 100 100 100 99 96 57 67 100 68 98 62 98 100 100
0 0 4 13 41 100 100 100 99 100 93 18 99 100 100 100 100 100 100 100 100 100 100 100 100 100 100 89 95 96 77 71 85 96 100 97 88 100 100 66 100 75 99
0 0 36 94 95 100 100 100 98 44 70 100 100 99 100 100 100 100 100 100 100 100 100 100 100 100 100 100 100 97 75 87 58 95 39 34 31 100 100 94 100 100 66
0 0 2 32 97 100 100 100 100 56 99 99 61 88 100 100 100 100 100 100 100 100 100 100 100 100 100 100 100 100 94 90 99 100 100 63 97 74 71 74 100 100 96
5 0 0 0 0 30 70 89 45 7 5 70 28 90 100 100 99 100 100 100 100 100 93 99 98 100 100 95 100 100 100 100 100 100 100 100 99 91 100 100 100 100 100
0 4 5 3 0 0 0 0 38 6 5 5 70 55 26 16 5 6 56 94 99 99 96 100 100 100 100 100 100 100 100 100 100 100 100 100 100 100 100 100 100 100 100
1 0 3 5 5 0 1 40 44 43 42 7 5 5 5 25 7 24 58 49 28 83 97 100 100 100 100 100 100 100 100 100 100 100 100 100 100 100 100 100 100 100 100
50 5 5 5 0 5 0 0 3 5 5 51 94 100 95 100 16 99 100 100 86 86 100 100 100 100 100 100 100 100 100 100 100 100 100 100 100 100 100 100 100 100 100
100 49 6 3 4 3 4 0 0 0 0 89 100 100 100 100 100 100 100 96 75 51 94 100 100 100 100 100 100 100 100 100 100 100 100 100 100 100 100 100 100 100 100
100 98 15 95 10 0 1 0 0 0 0 0 1 7 44 16 9 26 15 29 77 85 95 98 100 100 100 100 100 100 100 100 100 100 100 100 100 100 100 99 96 100 100
100 100 86 100 98 5 4 0 0 4 0 0 0 0 0 2 3 33 12 37 50 54 93 100 100 100 100 100 100 100 100 100 100 100 100 100 100 100 100 100 100 100 100
100 100 100 100 100 100 77 100 5 5 19 4 0 77 100 100 100 100 100 100 100 100 100 100 100 100 100 100 100 100 100 100 100 100 100 100 100 100 100 100 100 100 100
100 100 100 100 100 100 100 89 100 82 96 99 94 100 100 100 100 100 100 100 100 100 100 100 100 100 100 100 100 100 100 100 100 100 100 100 100 100 100 100 100 100 100
100 100 100 100 75 100 100 100 100 97 100 100 100 100 100 100 100 100 100 100 100 100 100 100 100 100 100 100 100 100 100 100 100 100 100 100 100 100 100 100 100 97 97
100 100 100 100 100 100 100 99 100 100 100 100 100 100 100 100 100 100 100 100 100 100 100 100 100 100 100 100 100 100 100 100 100 100 100 100 100 100 100 100 100 100 100
100 100 100 100 100 100 100 100 100 100 100 100 100 100 100 100 100 100 100 100 100 100 100 100 100 100 100 100 100 100 100 100 100 100 100 100 100 100 100 100 100 100 100
100 100 100 100 100 100 100 100 100 100 100 100 100 100 100 100 100 100 100 100 100 100 100 100 100 100 100 100 100 100 100 100 100 100 100 100 96 89 91 98 100 100 100
100 100 100 100 100 100 100 100 100 100 100 100 100 100 100 100 100 100 100 100 100 100 100 100 100 100 100 100 100 100 100 100 100 100 100 100 100 100 100 100 100 100 100
100 100 100 100 100 100 100 100 100 88 86 100 98 100 100 100 100 100 100 100 100 100 100 100 100 100 100 100 100 100 100 100 100 100 100 100 100 100 100 100 100 100 100
100 100 100 100 100 100 100 82 49 16 37 31 58 99 100 100 100 100 100 100 100 100 100 100 100 100 100 100 100 100 100 100 100 100 100 100 100 100 100 99 100 99 99
100 100 100 100 100 64 87 76 90 63 65 100 100 100 100 100 100 100 100 100 100 100 100 100 100 100 100 100 100 100 100 100 100 100 100 100 100 100 100 100 100 100 100
100 100 100 100 100 100 90 94 100 100 99 100 100 100 100 100 100 100 100 100 100 100 99 100 100 100 100 100 100 100 100 99 100 100 100 100 100 100 100 100 100 100 100